AFR267 RKSI-LFPG

Flight info

Callsign AFR267
Flight time 13h 22m
Altitude 21700
Route NOPIK2Y NOPIK Y697 AGAVO/K0815S0660 A591 IKEKA W4 FZ/K0911S1040 W4 HCH W200 DOVIV W55 DUMAP/K0907S1100 W55 PAMRU W34 VYK B215 LEBOM W104 VEXEB W47 IDSOT W48 DKO W66 NUKTI B215 POVEK/K0896S1160 B215 FKG A368 SARIN/K0891F380 N161 DIVNO/K0913F400 N161 GASBI/N0491F400 N161 LEYLA T916 MATAL M11 REBLO UM11 CRM UM688 EKSUK UL852 NEGEM DCT ANASA DCT BEDOX DCT MODSA DCT BABEG DCT ADENU DCT NOSPA DCT BITBU DCT DIK UN857 TOLVU/N0485F410 DCT RAPOR DCT VEDUS
Aircraft A359/H-SABDE2E3GHIJ1J2J3J4J5M1P2RWXYZ/LB1D1

Departure

Time 2026-05-08 11:49
Airport Incheon International Airport (RKSI)

Arrival

Time 2026-05-09 01:11
Airport Charles de Gaulle International Airport (LFPG)
Time Latitude Longitude Altitude Speed Heading
2026-05-08 11:23 37.46729 126.43879 38 ft 0 kts 28°
2026-05-08 11:36 37.46709 126.43866 36 ft 4 kts 27°
2026-05-08 11:36 37.46685 126.43850 37 ft 4 kts 31°
2026-05-08 11:36 37.46664 126.43830 38 ft 4 kts 59°
2026-05-08 11:37 37.46659 126.43807 38 ft 4 kts 86°
2026-05-08 11:37 37.46655 126.43774 38 ft 4 kts 68°
2026-05-08 11:37 37.46642 126.43745 36 ft 4 kts 50°
2026-05-08 11:37 37.46624 126.43720 37 ft 3 kts 53°
2026-05-08 11:38 37.46622 126.43716 37 ft 1 kts 54°
2026-05-08 11:40 37.46622 126.43717 38 ft 1 kts 54°
2026-05-08 11:40 37.46632 126.43735 38 ft 5 kts 54°
2026-05-08 11:41 37.46648 126.43796 38 ft 10 kts 99°
2026-05-08 11:41 37.46587 126.43879 38 ft 16 kts 144°
2026-05-08 11:41 37.46483 126.43971 38 ft 19 kts 145°
2026-05-08 11:41 37.46382 126.43999 38 ft 16 kts 219°
2026-05-08 11:42 37.46308 126.43883 38 ft 18 kts 234°
2026-05-08 11:42 37.46235 126.43753 38 ft 19 kts 234°
2026-05-08 11:42 37.46158 126.43616 38 ft 20 kts 235°
2026-05-08 11:42 37.46077 126.43472 38 ft 21 kts 234°
2026-05-08 11:43 37.45997 126.43331 38 ft 18 kts 235°
2026-05-08 11:43 37.45926 126.43223 38 ft 14 kts 206°
2026-05-08 11:43 37.45853 126.43244 38 ft 9 kts 145°
2026-05-08 11:43 37.45808 126.43284 38 ft 7 kts 145°
2026-05-08 11:44 37.45763 126.43323 38 ft 11 kts 144°
2026-05-08 11:44 37.45677 126.43399 37 ft 19 kts 144°
2026-05-08 11:44 37.45551 126.43513 38 ft 24 kts 144°
2026-05-08 11:44 37.45416 126.43633 38 ft 24 kts 144°
2026-05-08 11:45 37.45282 126.43753 38 ft 24 kts 144°
2026-05-08 11:45 37.45149 126.43872 38 ft 24 kts 144°
2026-05-08 11:45 37.45016 126.43988 38 ft 24 kts 144°
2026-05-08 11:45 37.44888 126.44103 38 ft 18 kts 144°
2026-05-08 11:46 37.44783 126.44196 38 ft 19 kts 145°
2026-05-08 11:46 37.44711 126.44260 37 ft 19 kts 144°
2026-05-08 11:46 37.44574 126.44382 38 ft 17 kts 144°
2026-05-08 11:46 37.44491 126.44408 38 ft 11 kts 216°
2026-05-08 11:47 37.44443 126.44328 38 ft 12 kts 234°
2026-05-08 11:47 37.44392 126.44239 37 ft 13 kts 234°
2026-05-08 11:47 37.44378 126.44143 37 ft 11 kts 306°
2026-05-08 11:47 37.44439 126.44084 35 ft 11 kts 324°
2026-05-08 11:48 37.44510 126.44021 38 ft 34 kts 324°
2026-05-08 11:48 37.44860 126.43710 38 ft 88 kts 324°
2026-05-08 11:48 37.45494 126.43145 41 ft 134 kts 324°
2026-05-08 11:48 37.46354 126.42379 107 ft 166 kts 323°
2026-05-08 11:49 37.47241 126.41556 715 ft 157 kts 318°
2026-05-08 11:49 37.47987 126.40551 1193 ft 159 kts 309°
2026-05-08 11:49 37.48725 126.39420 1435 ft 176 kts 309°
2026-05-08 11:49 37.49541 126.38166 1625 ft 196 kts 310°
2026-05-08 11:50 37.50278 126.36668 1894 ft 212 kts 290°
2026-05-08 11:50 37.50506 126.34743 2154 ft 233 kts 275°
2026-05-08 11:50 37.50539 126.32677 2619 ft 242 kts 274°
2026-05-08 11:50 37.50566 126.30526 3144 ft 248 kts 274°
2026-05-08 11:51 37.50605 126.28334 3685 ft 252 kts 275°
2026-05-08 11:51 37.50650 126.26111 4222 ft 256 kts 275°
2026-05-08 11:51 37.50700 126.23843 4725 ft 262 kts 275°
2026-05-08 11:51 37.50753 126.21534 5299 ft 264 kts 275°
2026-05-08 11:52 37.50742 126.19221 5961 ft 266 kts 267°
2026-05-08 11:52 37.50183 126.16992 6603 ft 271 kts 244°
2026-05-08 11:52 37.49175 126.14975 7215 ft 274 kts 240°
2026-05-08 11:52 37.48103 126.12975 7825 ft 277 kts 240°
2026-05-08 11:53 37.47029 126.10957 8461 ft 279 kts 241°
2026-05-08 11:53 37.45952 126.08923 9099 ft 281 kts 242°
2026-05-08 11:53 37.44864 126.06860 9746 ft 283 kts 242°
2026-05-08 11:53 37.43773 126.04785 10285 ft 289 kts 243°
2026-05-08 11:54 37.42640 126.02618 10547 ft 305 kts 242°
2026-05-08 11:54 37.41486 126.00337 10789 ft 318 kts 246°
2026-05-08 11:54 37.40757 125.97684 11039 ft 321 kts 268°
2026-05-08 11:54 37.40646 125.94845 11338 ft 331 kts 274°
2026-05-08 11:55 37.40635 125.91891 11610 ft 344 kts 274°
2026-05-08 11:55 37.40617 125.88844 12020 ft 352 kts 274°
2026-05-08 11:55 37.40588 125.85749 12568 ft 355 kts 274°
2026-05-08 11:55 37.40555 125.82632 13177 ft 358 kts 274°
2026-05-08 11:56 37.40519 125.79495 13777 ft 360 kts 274°
2026-05-08 11:56 37.40481 125.76335 14304 ft 362 kts 274°
2026-05-08 11:56 37.40441 125.73156 14848 ft 364 kts 273°
2026-05-08 11:56 37.40401 125.70001 15351 ft 366 kts 273°
2026-05-08 11:57 37.40359 125.66753 15905 ft 368 kts 274°
2026-05-08 11:57 37.40318 125.63528 16445 ft 370 kts 274°
2026-05-08 11:57 37.40279 125.60283 16987 ft 371 kts 274°
2026-05-08 11:57 37.40234 125.57031 17508 ft 373 kts 274°
2026-05-08 11:58 37.40187 125.53760 18057 ft 375 kts 274°
2026-05-08 11:58 37.40138 125.50467 18576 ft 377 kts 274°
2026-05-08 11:58 37.40088 125.47161 19061 ft 379 kts 274°
2026-05-08 11:59 37.39986 125.40577 20169 ft 379 kts 274°
2026-05-08 11:59 37.39933 125.37255 20711 ft 380 kts 274°
2026-05-08 11:59 37.39879 125.33892 21260 ft 381 kts 274°
2026-05-08 11:59 37.39827 125.30600 21688 ft 383 kts 274°
2026-05-08 12:00 37.39771 125.27271 21821 ft 377 kts 274°
2026-05-08 12:00 37.39713 125.24016 21827 ft 369 kts 274°
2026-05-08 12:00 37.39654 125.20787 21830 ft 369 kts 274°
2026-05-08 12:00 37.39599 125.17561 21827 ft 370 kts 274°
2026-05-08 12:01 37.39545 125.14325 21827 ft 370 kts 274°
2026-05-08 12:01 37.39491 125.11090 21826 ft 370 kts 274°
2026-05-08 12:01 37.39435 125.07853 21824 ft 370 kts 274°
2026-05-08 12:01 37.39378 125.04620 21824 ft 370 kts 274°
2026-05-08 12:02 37.39319 125.01382 21808 ft 370 kts 273°
2026-05-08 12:02 37.39259 124.98157 21817 ft 369 kts 273°
2026-05-08 12:02 37.39197 124.94920 21829 ft 369 kts 273°
2026-05-08 12:02 37.39135 124.91693 21821 ft 369 kts 273°
2026-05-08 12:03 37.39073 124.88481 21828 ft 370 kts 273°
2026-05-08 12:03 37.39009 124.85244 21825 ft 370 kts 273°
2026-05-08 12:03 37.38946 124.82009 21824 ft 369 kts 273°
2026-05-08 12:03 37.38883 124.78780 21830 ft 370 kts 273°
2026-05-08 12:04 37.38816 124.75552 21827 ft 370 kts 273°
2026-05-08 12:04 37.38747 124.72316 21829 ft 370 kts 273°
2026-05-08 12:04 37.38677 124.69083 21830 ft 370 kts 273°
2026-05-08 12:04 37.38606 124.65848 21830 ft 371 kts 273°
2026-05-08 12:05 37.38535 124.62611 21830 ft 371 kts 273°
2026-05-08 12:05 37.38463 124.59372 21830 ft 371 kts 273°
2026-05-08 12:05 37.38391 124.56137 21830 ft 371 kts 273°
2026-05-08 12:05 37.38317 124.52894 21830 ft 371 kts 273°
2026-05-08 12:06 37.38243 124.49660 21830 ft 370 kts 273°
2026-05-08 12:06 37.38163 124.46423 21825 ft 371 kts 272°
2026-05-08 12:06 37.37836 124.43228 21827 ft 377 kts 263°
2026-05-08 12:06 37.36991 124.40069 21831 ft 386 kts 252°
2026-05-08 12:07 37.35756 124.37057 21830 ft 390 kts 248°
2026-05-08 12:07 37.34370 124.34116 21830 ft 392 kts 245°
2026-05-08 12:07 37.32908 124.31218 21832 ft 393 kts 245°
2026-05-08 12:07 37.31416 124.28334 21832 ft 394 kts 244°
2026-05-08 12:08 37.29921 124.25449 21832 ft 394 kts 244°
2026-05-08 12:08 37.28435 124.22561 21834 ft 393 kts 245°
2026-05-08 12:08 37.26963 124.19674 21829 ft 393 kts 245°
2026-05-08 12:08 37.25491 124.16770 21842 ft 393 kts 245°
2026-05-08 12:09 37.24021 124.13854 21853 ft 401 kts 245°
2026-05-08 12:09 37.22529 124.10917 21841 ft 397 kts 244°
2026-05-08 12:09 37.21013 124.08039 21825 ft 395 kts 244°
2026-05-08 12:09 37.19476 124.05176 21846 ft 395 kts 244°
2026-05-08 12:10 37.17936 124.02320 21825 ft 395 kts 244°
2026-05-08 12:10 37.16397 123.99467 21848 ft 395 kts 244°
2026-05-08 12:10 37.14885 123.96606 21825 ft 394 kts 244°
2026-05-08 12:10 37.13394 123.93722 21825 ft 394 kts 245°
2026-05-08 12:11 37.11914 123.90833 21832 ft 394 kts 245°
2026-05-08 12:11 37.10434 123.87940 21844 ft 394 kts 245°
2026-05-08 12:11 37.08955 123.85054 21841 ft 395 kts 245°
2026-05-08 12:11 37.07467 123.82162 21835 ft 395 kts 245°
2026-05-08 12:12 37.05976 123.79272 21834 ft 395 kts 245°
2026-05-08 12:12 37.04486 123.76391 21833 ft 395 kts 245°
2026-05-08 12:12 37.02991 123.73504 21840 ft 395 kts 245°
2026-05-08 12:12 37.01500 123.70629 21819 ft 395 kts 244°
2026-05-08 12:13 36.99998 123.67735 21827 ft 395 kts 244°
2026-05-08 12:13 36.98504 123.64860 21834 ft 396 kts 244°
2026-05-08 12:13 36.97020 123.62004 21838 ft 396 kts 244°
2026-05-08 12:13 36.95519 123.59120 21838 ft 396 kts 244°
2026-05-08 12:14 36.94015 123.56233 21838 ft 396 kts 244°
2026-05-08 12:14 36.92511 123.53346 21837 ft 396 kts 244°
2026-05-08 12:14 36.91007 123.50464 21838 ft 396 kts 244°
2026-05-08 12:14 36.89503 123.47582 21818 ft 396 kts 244°
2026-05-08 12:15 36.87998 123.44703 21833 ft 396 kts 244°
2026-05-08 12:15 36.86492 123.41820 21838 ft 396 kts 244°
2026-05-08 12:15 36.85190 123.38829 21843 ft 388 kts 254°
2026-05-08 12:15 36.84402 123.35665 21839 ft 378 kts 265°
2026-05-08 12:16 36.84222 123.32439 21840 ft 369 kts 278°
2026-05-08 12:16 36.84610 123.29299 21839 ft 365 kts 286°
2026-05-08 12:16 36.85233 123.26230 21837 ft 364 kts 289°
2026-05-08 12:16 36.85958 123.23204 21837 ft 364 kts 290°
2026-05-08 12:17 36.86726 123.20187 21837 ft 364 kts 290°
2026-05-08 12:17 36.87497 123.17181 21838 ft 364 kts 290°
2026-05-08 12:17 36.88259 123.14167 21835 ft 364 kts 290°
2026-05-08 12:17 36.89010 123.11142 21837 ft 365 kts 290°
2026-05-08 12:18 36.89750 123.08113 21842 ft 365 kts 290°
2026-05-08 12:18 36.90481 123.05085 21840 ft 365 kts 290°
2026-05-08 12:18 36.91211 123.02042 21837 ft 365 kts 289°
2026-05-08 12:18 36.91936 122.99010 21835 ft 365 kts 289°
2026-05-08 12:19 36.92662 122.95970 21836 ft 365 kts 289°
2026-05-08 12:19 36.93385 122.92939 21837 ft 365 kts 289°
2026-05-08 12:19 36.94112 122.89891 21835 ft 365 kts 289°
2026-05-08 12:19 36.94835 122.86859 21834 ft 365 kts 290°
2026-05-08 12:20 36.95563 122.83802 21839 ft 366 kts 290°
2026-05-08 12:20 36.96288 122.80756 21837 ft 366 kts 290°
2026-05-08 12:20 36.97012 122.77710 21837 ft 366 kts 290°
2026-05-08 12:20 36.97737 122.74655 21837 ft 366 kts 290°
2026-05-08 12:21 36.98459 122.71606 21836 ft 366 kts 289°
2026-05-08 12:21 36.99181 122.68556 21838 ft 366 kts 289°
2026-05-08 12:21 36.99902 122.65506 21837 ft 366 kts 289°
2026-05-08 12:21 37.00621 122.62462 21840 ft 366 kts 289°
2026-05-08 12:22 37.01343 122.59400 21822 ft 366 kts 289°
2026-05-08 12:22 37.02063 122.56343 21840 ft 367 kts 289°
2026-05-08 12:22 37.02773 122.53323 21838 ft 367 kts 289°
2026-05-08 12:22 37.03504 122.50212 21836 ft 367 kts 289°
2026-05-08 12:23 37.04215 122.47182 21822 ft 367 kts 289°
2026-05-08 12:23 37.04934 122.44112 21830 ft 367 kts 289°
2026-05-08 12:23 37.05652 122.41044 21837 ft 367 kts 289°
2026-05-08 12:23 37.06370 122.37979 21821 ft 367 kts 290°
2026-05-08 12:24 37.07288 122.35011 21836 ft 364 kts 298°
2026-05-08 12:24 37.08623 122.32331 21831 ft 363 kts 309°
2026-05-08 12:24 37.10373 122.30065 21836 ft 363 kts 318°
2026-05-08 12:24 37.12307 122.28046 21828 ft 364 kts 321°
2026-05-08 12:25 37.14328 122.26129 21829 ft 364 kts 322°
2026-05-08 12:25 37.16311 122.24146 21827 ft 364 kts 316°
2026-05-08 12:25 37.17992 122.21784 21827 ft 364 kts 306°
2026-05-08 12:25 37.19235 122.19022 21834 ft 365 kts 296°
2026-05-08 12:26 37.20197 122.16069 21827 ft 367 kts 293°
2026-05-08 12:26 37.21036 122.13043 21827 ft 368 kts 291°
2026-05-08 12:26 37.21815 122.09973 21828 ft 368 kts 290°
2026-05-08 12:26 37.22570 122.06907 21821 ft 368 kts 290°
2026-05-08 12:27 37.23329 122.03834 21824 ft 369 kts 290°
2026-05-08 12:27 37.24098 122.00760 21826 ft 369 kts 291°
2026-05-08 12:27 37.24878 121.97688 21825 ft 369 kts 291°
2026-05-08 12:27 37.25661 121.94628 21825 ft 369 kts 291°
2026-05-08 12:28 37.26452 121.91554 21825 ft 369 kts 291°
2026-05-08 12:28 37.27244 121.88484 21824 ft 369 kts 291°
2026-05-08 12:28 37.28023 121.85459 21824 ft 369 kts 291°
2026-05-08 12:28 37.28823 121.82352 21824 ft 369 kts 291°
2026-05-08 12:29 37.29600 121.79329 21815 ft 369 kts 291°
2026-05-08 12:29 37.30388 121.76256 21822 ft 370 kts 291°
2026-05-08 12:29 37.31187 121.73138 21816 ft 371 kts 291°
2026-05-08 12:29 37.31975 121.70054 21817 ft 371 kts 291°
2026-05-08 12:30 37.32751 121.67011 21825 ft 371 kts 291°
2026-05-08 12:30 37.33537 121.63925 21822 ft 371 kts 291°
2026-05-08 12:30 37.34324 121.60834 21822 ft 371 kts 291°
2026-05-08 12:30 37.35109 121.57748 21822 ft 371 kts 291°
2026-05-08 12:31 37.35893 121.54664 21823 ft 371 kts 291°
2026-05-08 12:31 37.36676 121.51577 21811 ft 371 kts 291°
2026-05-08 12:31 37.37461 121.48481 21818 ft 372 kts 291°
2026-05-08 12:31 37.38245 121.45381 21818 ft 372 kts 291°
2026-05-08 12:32 37.39029 121.42285 21821 ft 372 kts 291°
2026-05-08 12:32 37.39814 121.39175 21814 ft 373 kts 291°
2026-05-08 12:32 37.40595 121.36075 21816 ft 373 kts 291°
2026-05-08 12:32 37.41379 121.32961 21816 ft 373 kts 291°
2026-05-08 12:33 37.42160 121.29856 21810 ft 373 kts 291°
2026-05-08 12:33 37.42941 121.26751 21813 ft 372 kts 291°
2026-05-08 12:33 37.43720 121.23644 21803 ft 372 kts 291°
2026-05-08 12:33 37.44500 121.20531 21874 ft 376 kts 291°
2026-05-08 12:34 37.45298 121.17355 22024 ft 385 kts 291°
2026-05-08 12:34 37.46184 121.14150 22390 ft 389 kts 294°
2026-05-08 12:34 37.47186 121.10990 22847 ft 391 kts 295°
2026-05-08 12:34 37.48245 121.07819 23300 ft 393 kts 296°
2026-05-08 12:35 37.49309 121.04646 23753 ft 396 kts 295°
2026-05-08 12:35 37.50373 121.01434 24160 ft 398 kts 295°
2026-05-08 12:35 37.51426 120.98200 24585 ft 399 kts 295°
2026-05-08 12:35 37.52468 120.94953 24980 ft 401 kts 294°
2026-05-08 12:36 37.53506 120.91691 25358 ft 403 kts 294°
2026-05-08 12:36 37.54545 120.88406 25779 ft 404 kts 294°
2026-05-08 12:36 37.55586 120.85105 26202 ft 405 kts 294°
2026-05-08 12:36 37.56628 120.81801 26620 ft 406 kts 294°
2026-05-08 12:37 37.57671 120.78491 27034 ft 408 kts 294°
2026-05-08 12:37 37.58720 120.75161 27419 ft 409 kts 293°
2026-05-08 12:37 37.59424 120.72957 27692 ft 410 kts 294°
2026-05-08 12:37 37.60511 120.69626 28107 ft 411 kts 294°
2026-05-08 12:38 37.61612 120.66298 28495 ft 412 kts 294°
2026-05-08 12:38 37.62722 120.62950 28861 ft 414 kts 294°
2026-05-08 12:38 37.63833 120.59595 29204 ft 415 kts 294°
2026-05-08 12:38 37.64955 120.56225 29559 ft 417 kts 295°
2026-05-08 12:39 37.66264 120.52949 29686 ft 421 kts 299°
2026-05-08 12:39 37.67683 120.49723 30156 ft 418 kts 300°
2026-05-08 12:39 37.69119 120.46539 30565 ft 417 kts 300°
2026-05-08 12:39 37.70574 120.43353 30726 ft 421 kts 300°
2026-05-08 12:40 37.72040 120.40153 30945 ft 422 kts 300°
2026-05-08 12:40 37.73514 120.36936 31206 ft 423 kts 300°
2026-05-08 12:40 37.74983 120.33723 31501 ft 422 kts 300°
2026-05-08 12:40 37.76444 120.30516 31844 ft 420 kts 299°
2026-05-08 12:41 37.77895 120.27324 32161 ft 419 kts 299°
2026-05-08 12:41 37.79346 120.24125 32482 ft 418 kts 299°
2026-05-08 12:41 37.80785 120.20949 32783 ft 416 kts 299°
2026-05-08 12:41 37.82224 120.17770 33079 ft 415 kts 298°
2026-05-08 12:42 37.83654 120.14606 33365 ft 414 kts 298°
2026-05-08 12:42 37.85082 120.11444 33647 ft 413 kts 298°
2026-05-08 12:42 37.86506 120.08288 33876 ft 413 kts 298°
2026-05-08 12:42 37.87930 120.05130 34089 ft 413 kts 298°
2026-05-08 12:43 37.90792 119.98769 34173 ft 419 kts 298°
2026-05-08 12:43 37.93656 119.92395 34174 ft 419 kts 298°
2026-05-08 12:44 37.96550 119.85943 34175 ft 418 kts 298°
2026-05-08 12:44 37.99405 119.79564 34179 ft 419 kts 298°
2026-05-08 12:45 38.02279 119.73130 34172 ft 419 kts 298°
2026-05-08 12:45 38.05150 119.66689 34169 ft 419 kts 298°
2026-05-08 12:46 38.08016 119.60247 34169 ft 419 kts 298°
2026-05-08 12:46 38.10839 119.53766 34154 ft 419 kts 295°
2026-05-08 12:47 38.13185 119.46977 34162 ft 421 kts 292°
2026-05-08 12:47 38.15434 119.40098 34162 ft 422 kts 292°
2026-05-08 12:48 38.17660 119.33213 34164 ft 422 kts 292°
2026-05-08 12:48 38.19890 119.26317 34161 ft 422 kts 292°
2026-05-08 12:49 38.22124 119.19411 34158 ft 424 kts 292°
2026-05-08 12:49 38.24366 119.12470 34156 ft 424 kts 292°
2026-05-08 12:50 38.26607 119.05514 34156 ft 424 kts 292°
2026-05-08 12:50 38.28826 118.98606 34150 ft 424 kts 292°
2026-05-08 12:51 38.32189 118.88111 34150 ft 427 kts 292°
2026-05-08 12:52 38.34414 118.81142 34150 ft 427 kts 292°
2026-05-08 12:52 38.37764 118.70644 34145 ft 427 kts 292°
2026-05-08 12:53 38.40002 118.63638 34142 ft 428 kts 292°
2026-05-08 12:53 38.42244 118.56600 34141 ft 429 kts 292°
2026-05-08 12:54 38.44486 118.49545 34139 ft 429 kts 292°
2026-05-08 12:54 38.46721 118.42492 34138 ft 429 kts 292°
2026-05-08 12:55 38.48959 118.35432 34137 ft 429 kts 292°
2026-05-08 12:55 38.51185 118.28358 34130 ft 430 kts 292°
2026-05-08 12:56 38.53408 118.21270 34131 ft 430 kts 292°
2026-05-08 12:56 38.55626 118.14190 34133 ft 430 kts 292°
2026-05-08 12:57 38.57879 118.07107 34125 ft 430 kts 295°
2026-05-08 12:57 38.59290 118.03733 34238 ft 430 kts 301°
2026-05-08 12:57 38.61026 118.00642 34490 ft 429 kts 308°
2026-05-08 12:58 38.63002 117.97787 34769 ft 427 kts 310°
2026-05-08 12:58 38.65028 117.95009 34986 ft 426 kts 310°
2026-05-08 12:58 38.67073 117.92271 35179 ft 426 kts 311°
2026-05-08 12:58 38.69130 117.89544 35350 ft 425 kts 311°
2026-05-08 12:59 38.71183 117.86825 35512 ft 425 kts 311°
2026-05-08 12:59 38.73234 117.84102 35685 ft 425 kts 311°
2026-05-08 12:59 38.75277 117.81378 35839 ft 424 kts 311°
2026-05-08 12:59 38.77321 117.78644 35971 ft 424 kts 311°
2026-05-08 13:00 38.79365 117.75905 36098 ft 424 kts 310°
2026-05-08 13:00 38.81405 117.73164 36118 ft 427 kts 310°
2026-05-08 13:00 38.85527 117.67615 36113 ft 431 kts 310°
2026-05-08 13:01 38.89661 117.62048 36118 ft 430 kts 310°
2026-05-08 13:01 38.93784 117.56485 36115 ft 430 kts 310°
2026-05-08 13:02 38.97901 117.50918 36116 ft 430 kts 310°
2026-05-08 13:02 39.02021 117.45338 36116 ft 430 kts 310°
2026-05-08 13:03 39.05817 117.39461 36121 ft 429 kts 301°
2026-05-08 13:03 39.08343 117.32548 36121 ft 428 kts 287°
2026-05-08 13:04 39.09597 117.25060 36120 ft 429 kts 281°
2026-05-08 13:04 39.10590 117.17480 36096 ft 430 kts 281°
2026-05-08 13:05 39.11561 117.09868 36090 ft 431 kts 281°
2026-05-08 13:05 39.12552 117.02254 36094 ft 431 kts 281°
2026-05-08 13:06 39.13594 116.94656 36084 ft 431 kts 282°
2026-05-08 13:06 39.14802 116.87098 36091 ft 431 kts 283°
2026-05-08 13:07 39.16025 116.79549 36087 ft 431 kts 282°
2026-05-08 13:07 39.17221 116.71971 36084 ft 431 kts 282°
2026-05-08 13:08 39.18394 116.64393 36083 ft 431 kts 282°
2026-05-08 13:08 39.18812 116.56670 36078 ft 435 kts 269°
2026-05-08 13:09 39.17669 116.48984 36077 ft 440 kts 258°
2026-05-08 13:09 39.15951 116.41406 36076 ft 441 kts 257°
2026-05-08 13:10 39.14154 116.33841 36074 ft 441 kts 257°
2026-05-08 13:10 39.12373 116.26281 36073 ft 441 kts 257°
2026-05-08 13:11 39.10606 116.18709 36070 ft 442 kts 257°
2026-05-08 13:11 39.08839 116.11140 36067 ft 442 kts 257°
2026-05-08 13:12 39.07076 116.03610 36071 ft 442 kts 257°
2026-05-08 13:12 39.05299 115.96050 36066 ft 442 kts 257°
2026-05-08 13:13 39.03514 115.88480 36066 ft 442 kts 257°
2026-05-08 13:13 39.01722 115.80908 36067 ft 443 kts 257°
2026-05-08 13:14 38.99929 115.73354 36063 ft 441 kts 257°
2026-05-08 13:14 38.98121 115.65768 35984 ft 440 kts 257°
2026-05-08 13:15 38.97228 115.62025 36160 ft 439 kts 256°
2026-05-08 13:15 38.96324 115.58238 36080 ft 444 kts 256°
2026-05-08 13:15 38.94436 115.50691 36061 ft 445 kts 252°
2026-05-08 13:16 38.92022 115.43440 36060 ft 445 kts 250°
2026-05-08 13:16 38.89465 115.36149 36057 ft 444 kts 250°
2026-05-08 13:17 38.86938 115.29008 36058 ft 442 kts 250°
2026-05-08 13:17 38.84396 115.21804 36057 ft 444 kts 250°
2026-05-08 13:18 38.81827 115.14530 36057 ft 445 kts 250°
2026-05-08 13:18 38.79274 115.07316 36058 ft 445 kts 250°
2026-05-08 13:19 38.76734 115.00158 36037 ft 443 kts 250°
2026-05-08 13:19 38.74191 114.92994 36049 ft 440 kts 250°
2026-05-08 13:20 38.71651 114.85852 36056 ft 441 kts 250°
2026-05-08 13:20 38.69107 114.78723 36042 ft 441 kts 250°
2026-05-08 13:21 38.66555 114.71585 36042 ft 441 kts 250°
2026-05-08 13:21 38.64001 114.64460 36033 ft 440 kts 250°
2026-05-08 13:22 38.61461 114.57395 36051 ft 436 kts 250°
2026-05-08 13:22 38.58908 114.50366 36053 ft 436 kts 250°
2026-05-08 13:23 38.56355 114.43350 36048 ft 436 kts 250°
2026-05-08 13:23 38.53813 114.36329 36027 ft 436 kts 250°
2026-05-08 13:24 38.51258 114.29289 36035 ft 437 kts 249°
2026-05-08 13:24 38.48690 114.22239 36036 ft 438 kts 249°
2026-05-08 13:25 38.46552 114.16387 36035 ft 438 kts 249°
2026-05-08 13:25 38.43975 114.09347 36043 ft 438 kts 249°
2026-05-08 13:26 38.41393 114.02317 36048 ft 439 kts 249°
2026-05-08 13:26 38.38787 113.95219 36050 ft 444 kts 249°
2026-05-08 13:27 38.36187 113.88152 36041 ft 436 kts 249°
2026-05-08 13:27 38.33620 113.81198 36058 ft 433 kts 249°
2026-05-08 13:28 38.31030 113.74269 36069 ft 433 kts 249°
2026-05-08 13:28 38.28404 113.67331 36065 ft 437 kts 249°
2026-05-08 13:29 38.25755 113.60348 36077 ft 439 kts 249°
2026-05-08 13:29 38.23108 113.53376 36069 ft 435 kts 249°
2026-05-08 13:30 38.20476 113.46454 36106 ft 436 kts 249°
2026-05-08 13:30 38.17850 113.39552 36090 ft 432 kts 249°
2026-05-08 13:31 38.15237 113.32669 36109 ft 432 kts 249°
2026-05-08 13:31 38.12666 113.25750 36109 ft 433 kts 249°
2026-05-08 13:32 38.10122 113.18908 36126 ft 432 kts 249°
2026-05-08 13:32 38.07552 113.12034 36106 ft 428 kts 249°
2026-05-08 13:33 38.04979 113.05177 36144 ft 428 kts 249°
2026-05-08 13:33 38.02428 112.98389 36145 ft 429 kts 249°
2026-05-08 13:34 37.99850 112.91548 36142 ft 430 kts 249°
2026-05-08 13:34 37.97273 112.84725 36143 ft 429 kts 249°
2026-05-08 13:35 37.94698 112.77921 36149 ft 427 kts 249°
2026-05-08 13:35 37.92128 112.71151 36151 ft 425 kts 249°
2026-05-08 13:36 37.89560 112.64400 36148 ft 425 kts 249°
2026-05-08 13:36 37.86990 112.57656 36148 ft 426 kts 249°
2026-05-08 13:37 37.84238 112.50991 36146 ft 428 kts 246°
2026-05-08 13:37 37.81376 112.44391 36145 ft 428 kts 247°
2026-05-08 13:38 37.78984 112.37609 36162 ft 418 kts 257°
2026-05-08 13:38 37.78075 112.30442 36171 ft 411 kts 271°
2026-05-08 13:39 37.78508 112.23253 36167 ft 411 kts 277°
2026-05-08 13:39 37.79226 112.16068 36176 ft 412 kts 278°
2026-05-08 13:40 37.79959 112.08875 36173 ft 413 kts 277°
2026-05-08 13:40 37.80664 112.01651 36174 ft 414 kts 277°
2026-05-08 13:41 37.81349 111.94430 36180 ft 414 kts 277°
2026-05-08 13:41 37.82030 111.87189 36179 ft 415 kts 277°
2026-05-08 13:42 37.82707 111.79947 36104 ft 415 kts 277°
2026-05-08 13:42 37.83365 111.72846 36178 ft 398 kts 278°
2026-05-08 13:43 37.84052 111.65978 36179 ft 391 kts 279°
2026-05-08 13:43 37.84877 111.59185 36177 ft 391 kts 282°
2026-05-08 13:44 37.86619 111.52648 36173 ft 395 kts 294°
2026-05-08 13:44 37.89659 111.46831 36180 ft 402 kts 306°
2026-05-08 13:45 37.93852 111.42032 36172 ft 409 kts 314°
2026-05-08 13:45 37.98347 111.37607 36165 ft 410 kts 315°
2026-05-08 13:46 38.02844 111.33236 36166 ft 410 kts 315°
2026-05-08 13:46 38.07345 111.28822 36161 ft 407 kts 315°
2026-05-08 13:47 38.11801 111.24420 36153 ft 405 kts 314°
2026-05-08 13:47 38.16243 111.20009 36141 ft 406 kts 314°
2026-05-08 13:48 38.20683 111.15596 36143 ft 405 kts 314°
2026-05-08 13:48 38.25123 111.11179 36127 ft 405 kts 315°
2026-05-08 13:49 38.29562 111.06758 36119 ft 405 kts 315°
2026-05-08 13:49 38.33993 111.02338 36123 ft 404 kts 315°
2026-05-08 13:50 38.38405 110.97931 36101 ft 403 kts 314°
2026-05-08 13:50 38.42811 110.93520 36101 ft 402 kts 314°
2026-05-08 13:51 38.47185 110.89133 36099 ft 403 kts 314°
2026-05-08 13:51 38.51585 110.84712 36079 ft 403 kts 314°
2026-05-08 13:52 38.55987 110.80284 36054 ft 402 kts 314°
2026-05-08 13:52 38.60396 110.75844 36078 ft 406 kts 315°
2026-05-08 13:53 38.64836 110.71370 36070 ft 407 kts 315°
2026-05-08 13:53 38.69279 110.66880 36064 ft 407 kts 315°
2026-05-08 13:54 38.73711 110.62391 36062 ft 407 kts 315°
2026-05-08 13:54 38.78151 110.57890 36061 ft 407 kts 315°
2026-05-08 13:55 38.82569 110.53405 36053 ft 407 kts 315°
2026-05-08 13:56 38.89211 110.46646 36048 ft 406 kts 315°
2026-05-08 13:56 38.93632 110.42138 36048 ft 406 kts 315°
2026-05-08 13:57 38.98059 110.37643 36048 ft 406 kts 315°
2026-05-08 13:57 39.02509 110.33164 36048 ft 406 kts 315°
2026-05-08 13:58 39.06941 110.28700 36046 ft 406 kts 315°
2026-05-08 13:58 39.11384 110.24211 36049 ft 406 kts 315°
2026-05-08 13:59 39.15396 110.19217 36045 ft 398 kts 305°
2026-05-08 13:59 39.18272 110.13185 36036 ft 394 kts 292°
2026-05-08 14:00 39.19780 110.06402 36048 ft 397 kts 279°
2026-05-08 14:00 39.20256 109.99283 36050 ft 399 kts 276°
2026-05-08 14:01 39.20560 109.92134 36046 ft 399 kts 276°
2026-05-08 14:01 39.20859 109.84992 36044 ft 400 kts 276°
2026-05-08 14:02 39.21178 109.77834 36041 ft 400 kts 276°
2026-05-08 14:02 39.21504 109.70675 36033 ft 400 kts 276°
2026-05-08 14:03 39.21826 109.63520 36051 ft 399 kts 276°
2026-05-08 14:03 39.22141 109.56389 36044 ft 398 kts 276°
2026-05-08 14:04 39.22453 109.49249 36048 ft 399 kts 276°
2026-05-08 14:04 39.22744 109.42146 36047 ft 400 kts 275°
2026-05-08 14:05 39.23010 109.34949 36046 ft 400 kts 275°
2026-05-08 14:05 39.23271 109.27824 36046 ft 400 kts 275°
2026-05-08 14:06 39.23534 109.20661 36044 ft 400 kts 275°
2026-05-08 14:06 39.23795 109.13490 36045 ft 401 kts 275°
2026-05-08 14:07 39.24053 109.06303 36039 ft 401 kts 275°
2026-05-08 14:07 39.24306 108.99107 36038 ft 401 kts 275°
2026-05-08 14:08 39.24555 108.91915 36035 ft 402 kts 275°
2026-05-08 14:08 39.24799 108.84716 36039 ft 402 kts 275°
2026-05-08 14:09 39.25045 108.77509 36027 ft 402 kts 275°
2026-05-08 14:09 39.25282 108.70292 36036 ft 404 kts 275°
2026-05-08 14:10 39.25515 108.63046 36035 ft 404 kts 275°
2026-05-08 14:10 39.25745 108.55805 36033 ft 404 kts 275°
2026-05-08 14:11 39.25970 108.48556 36034 ft 405 kts 275°
2026-05-08 14:11 39.26192 108.41293 36250 ft 407 kts 275°
2026-05-08 14:12 39.26414 108.33927 36215 ft 415 kts 274°
2026-05-08 14:12 39.26636 108.26408 36202 ft 422 kts 274°
2026-05-08 14:13 39.27064 108.18854 36198 ft 427 kts 281°
2026-05-08 14:13 39.28833 108.11519 36198 ft 432 kts 295°
2026-05-08 14:14 39.32184 108.05108 36192 ft 434 kts 310°
2026-05-08 14:14 39.35914 108.00668 36195 ft 436 kts 316°
2026-05-08 14:15 39.40581 107.95643 36190 ft 437 kts 317°
2026-05-08 14:15 39.45273 107.90641 36186 ft 437 kts 317°
2026-05-08 14:16 39.49940 107.85611 36183 ft 437 kts 317°
2026-05-08 14:16 39.54593 107.80558 36183 ft 436 kts 317°
2026-05-08 14:17 39.59186 107.75555 36173 ft 434 kts 317°
2026-05-08 14:17 39.63793 107.70527 36164 ft 432 kts 317°
2026-05-08 14:18 39.68391 107.65502 36163 ft 432 kts 317°
2026-05-08 14:18 39.72983 107.60474 36161 ft 432 kts 316°
2026-05-08 14:19 39.77573 107.55440 36154 ft 432 kts 316°
2026-05-08 14:19 39.82133 107.50429 36154 ft 432 kts 316°
2026-05-08 14:20 39.86721 107.45379 36147 ft 432 kts 316°
2026-05-08 14:20 39.91308 107.40321 36141 ft 432 kts 316°
2026-05-08 14:21 39.95897 107.35252 36136 ft 434 kts 316°
2026-05-08 14:21 40.00509 107.30146 36129 ft 436 kts 316°
2026-05-08 14:22 40.05131 107.25022 36122 ft 436 kts 316°
2026-05-08 14:22 40.09757 107.19882 36117 ft 439 kts 316°
2026-05-08 14:23 40.14412 107.14701 36112 ft 439 kts 316°
2026-05-08 14:23 40.19061 107.09519 36100 ft 439 kts 316°
2026-05-08 14:24 40.23707 107.04330 36082 ft 439 kts 316°
2026-05-08 14:24 40.28218 106.98968 36083 ft 437 kts 309°
2026-05-08 14:25 40.31647 106.92521 36088 ft 433 kts 295°
2026-05-08 14:25 40.33880 106.85210 36076 ft 433 kts 290°
2026-05-08 14:26 40.35865 106.77713 36073 ft 433 kts 289°
2026-05-08 14:26 40.37795 106.70291 36064 ft 432 kts 289°
2026-05-08 14:27 40.39747 106.62848 36065 ft 430 kts 289°
2026-05-08 14:27 40.41702 106.55432 36070 ft 430 kts 289°
2026-05-08 14:28 40.43653 106.48020 36072 ft 430 kts 289°
2026-05-08 14:28 40.45596 106.40612 36068 ft 430 kts 289°
2026-05-08 14:29 40.47536 106.33190 36070 ft 430 kts 289°
2026-05-08 14:29 40.49473 106.25760 36067 ft 429 kts 289°
2026-05-08 14:30 40.51400 106.18342 36071 ft 429 kts 289°
2026-05-08 14:30 40.53322 106.10921 36072 ft 429 kts 289°
2026-05-08 14:31 40.55240 106.03495 36077 ft 429 kts 289°
2026-05-08 14:31 40.57156 105.96053 36073 ft 429 kts 289°
2026-05-08 14:32 40.60020 105.84885 36070 ft 430 kts 289°
2026-05-08 14:32 40.61923 105.77436 36069 ft 430 kts 289°
2026-05-08 14:33 40.63822 105.69982 36069 ft 430 kts 289°
2026-05-08 14:33 40.65719 105.62512 36059 ft 430 kts 289°
2026-05-08 14:34 40.67596 105.55094 36064 ft 430 kts 289°
2026-05-08 14:34 40.69480 105.47626 36060 ft 430 kts 289°
2026-05-08 14:35 40.71359 105.40159 36060 ft 430 kts 289°
2026-05-08 14:35 40.73235 105.32676 36058 ft 430 kts 289°
2026-05-08 14:36 40.75105 105.25197 36054 ft 430 kts 289°
2026-05-08 14:36 40.76974 105.17695 36058 ft 431 kts 289°
2026-05-08 14:37 40.78843 105.10174 36047 ft 432 kts 289°
2026-05-08 14:37 40.80707 105.02643 36044 ft 432 kts 288°
2026-05-08 14:38 40.82565 104.95119 36044 ft 431 kts 288°
2026-05-08 14:38 40.84422 104.87570 35971 ft 432 kts 289°
2026-05-08 14:39 40.86269 104.80039 35974 ft 431 kts 289°
2026-05-08 14:39 40.88112 104.72499 35974 ft 431 kts 289°
2026-05-08 14:40 40.89953 104.64945 35973 ft 431 kts 288°
2026-05-08 14:40 40.91785 104.57400 35975 ft 431 kts 288°
2026-05-08 14:41 40.93614 104.49846 35975 ft 431 kts 288°
2026-05-08 14:41 40.95439 104.42285 35969 ft 431 kts 288°
2026-05-08 14:42 40.97257 104.34728 35967 ft 431 kts 288°
2026-05-08 14:42 40.99118 104.27236 35967 ft 431 kts 290°
2026-05-08 14:43 41.01297 104.19797 35961 ft 431 kts 292°
2026-05-08 14:43 41.03504 104.12422 35967 ft 430 kts 292°
2026-05-08 14:44 41.05664 104.05024 35972 ft 430 kts 291°
2026-05-08 14:44 41.07790 103.97618 35975 ft 430 kts 291°
2026-05-08 14:45 41.09907 103.90194 35974 ft 430 kts 291°
2026-05-08 14:45 41.12022 103.82762 35959 ft 431 kts 291°
2026-05-08 14:46 41.14135 103.75325 35964 ft 431 kts 291°
2026-05-08 14:46 41.16229 103.67931 35962 ft 431 kts 291°
2026-05-08 14:47 41.18333 103.60481 35974 ft 431 kts 291°
2026-05-08 14:47 41.20430 103.53035 35966 ft 430 kts 291°
2026-05-08 14:48 41.22520 103.45593 35967 ft 431 kts 291°
2026-05-08 14:48 41.24610 103.38128 35971 ft 431 kts 291°
2026-05-08 14:49 41.26689 103.30680 35960 ft 432 kts 291°
2026-05-08 14:49 41.28770 103.23201 35964 ft 431 kts 290°
2026-05-08 14:50 41.30851 103.15702 35965 ft 432 kts 290°
2026-05-08 14:50 41.32923 103.08214 35960 ft 432 kts 290°
2026-05-08 14:51 41.34996 103.00698 35959 ft 433 kts 290°
2026-05-08 14:51 41.37099 102.93201 35961 ft 433 kts 291°
2026-05-08 14:52 41.40357 102.81990 35958 ft 433 kts 291°
2026-05-08 14:53 41.42518 102.74511 35953 ft 433 kts 291°
2026-05-08 14:53 41.44673 102.67016 35951 ft 433 kts 291°
2026-05-08 14:54 41.46832 102.59514 35958 ft 433 kts 291°
2026-05-08 14:54 41.48987 102.52001 35953 ft 433 kts 291°
2026-05-08 14:55 41.51135 102.44489 35953 ft 433 kts 291°
2026-05-08 14:55 41.53279 102.36970 35960 ft 434 kts 291°
2026-05-08 14:56 41.55425 102.29425 35952 ft 436 kts 291°
2026-05-08 14:56 41.57572 102.21851 35954 ft 436 kts 291°
2026-05-08 14:57 41.59710 102.14288 35954 ft 436 kts 291°
2026-05-08 14:57 41.61849 102.06699 35953 ft 436 kts 291°
2026-05-08 14:58 41.63968 101.99158 35953 ft 436 kts 290°
2026-05-08 14:58 41.66111 101.91509 35951 ft 437 kts 290°
2026-05-08 14:59 41.68235 101.83904 35953 ft 437 kts 290°
2026-05-08 14:59 41.71413 101.72483 35959 ft 437 kts 290°
2026-05-08 15:00 41.73512 101.64910 35964 ft 437 kts 290°
2026-05-08 15:00 41.75629 101.57250 35944 ft 439 kts 290°
2026-05-08 15:01 41.77741 101.49581 35963 ft 439 kts 290°
2026-05-08 15:01 41.79853 101.41894 35967 ft 439 kts 290°
2026-05-08 15:02 41.81602 101.35509 35956 ft 439 kts 290°
2026-05-08 15:02 41.83700 101.27824 35964 ft 439 kts 290°
2026-05-08 15:03 41.85087 101.19831 35960 ft 442 kts 277°
2026-05-08 15:03 41.85450 101.11586 35957 ft 444 kts 274°
2026-05-08 15:04 41.85636 101.03311 35958 ft 444 kts 274°
2026-05-08 15:04 41.85801 100.95030 35962 ft 444 kts 274°
2026-05-08 15:05 41.85979 100.86759 35965 ft 444 kts 274°
2026-05-08 15:05 41.86162 100.78477 35967 ft 444 kts 274°
2026-05-08 15:06 41.86341 100.70202 35973 ft 444 kts 274°
2026-05-08 15:06 41.86513 100.61915 35970 ft 444 kts 274°
2026-05-08 15:07 41.86679 100.53643 35972 ft 445 kts 274°
2026-05-08 15:07 41.86840 100.45324 35975 ft 446 kts 274°
2026-05-08 15:08 41.86994 100.37007 35974 ft 446 kts 274°
2026-05-08 15:08 41.87142 100.28684 35975 ft 446 kts 273°
2026-05-08 15:09 41.87285 100.20365 35973 ft 446 kts 273°
2026-05-08 15:09 41.87421 100.12033 35988 ft 447 kts 273°
2026-05-08 15:10 41.87552 100.03696 35983 ft 447 kts 273°
2026-05-08 15:10 41.87677 99.95341 35984 ft 448 kts 273°
2026-05-08 15:11 41.87796 99.86993 35988 ft 447 kts 273°
2026-05-08 15:11 41.87909 99.78643 35990 ft 448 kts 273°
2026-05-08 15:12 41.88016 99.70277 35991 ft 449 kts 273°
2026-05-08 15:12 41.88117 99.61904 35998 ft 449 kts 273°
2026-05-08 15:13 41.88213 99.53503 36000 ft 453 kts 273°
2026-05-08 15:13 41.88301 99.45138 35997 ft 449 kts 273°
2026-05-08 15:14 41.88383 99.36747 36010 ft 450 kts 273°
2026-05-08 15:14 41.88461 99.28301 36011 ft 450 kts 273°
2026-05-08 15:15 41.88531 99.19966 36023 ft 450 kts 273°
2026-05-08 15:15 41.88596 99.11516 36023 ft 450 kts 273°
2026-05-08 15:16 41.88654 99.03164 36030 ft 451 kts 272°
2026-05-08 15:16 41.88706 98.94756 36030 ft 451 kts 272°
2026-05-08 15:17 41.88753 98.86330 36036 ft 451 kts 272°
2026-05-08 15:17 41.88793 98.77913 36044 ft 451 kts 272°
2026-05-08 15:18 41.88827 98.69479 36043 ft 451 kts 272°
2026-05-08 15:18 41.88855 98.61052 36055 ft 452 kts 272°
2026-05-08 15:19 41.88876 98.52604 36052 ft 452 kts 272°
2026-05-08 15:19 41.88892 98.44165 36057 ft 452 kts 272°
2026-05-08 15:20 41.88901 98.35715 36061 ft 453 kts 272°
2026-05-08 15:20 41.88905 98.27235 36067 ft 455 kts 272°
2026-05-08 15:21 41.88902 98.18745 36071 ft 456 kts 272°
2026-05-08 15:21 41.88892 98.10225 36069 ft 456 kts 272°
2026-05-08 15:22 41.88876 98.01711 36079 ft 456 kts 272°
2026-05-08 15:22 41.88854 97.93197 36077 ft 457 kts 272°
2026-05-08 15:23 41.88826 97.84678 36083 ft 457 kts 272°
2026-05-08 15:23 41.88791 97.76139 36082 ft 457 kts 272°
2026-05-08 15:24 41.88750 97.67604 36085 ft 457 kts 272°
2026-05-08 15:24 41.88703 97.59072 36092 ft 457 kts 272°
2026-05-08 15:25 41.88649 97.50527 36093 ft 458 kts 272°
2026-05-08 15:25 41.88589 97.41965 36093 ft 459 kts 272°
2026-05-08 15:26 41.88523 97.33407 36093 ft 459 kts 272°
2026-05-08 15:26 41.88450 97.24839 36102 ft 459 kts 272°
2026-05-08 15:27 41.88371 97.16276 36104 ft 459 kts 272°
2026-05-08 15:27 41.88285 97.07719 36201 ft 459 kts 272°
2026-05-08 15:28 41.88241 97.03422 36091 ft 461 kts 272°
2026-05-08 15:28 41.88194 96.99103 36110 ft 463 kts 272°
2026-05-08 15:28 41.88094 96.90510 36116 ft 460 kts 272°
2026-05-08 15:29 41.87989 96.81948 36118 ft 459 kts 272°
2026-05-08 15:29 41.87877 96.73349 36123 ft 462 kts 272°
2026-05-08 15:30 41.87759 96.64730 36131 ft 462 kts 272°
2026-05-08 15:30 41.87635 96.56112 36131 ft 462 kts 272°
2026-05-08 15:31 41.87503 96.47485 36134 ft 462 kts 272°
2026-05-08 15:31 41.87366 96.38857 36139 ft 464 kts 271°
2026-05-08 15:32 41.87221 96.30189 36138 ft 465 kts 271°
2026-05-08 15:32 41.87075 96.21528 36144 ft 465 kts 272°
2026-05-08 15:33 41.87019 96.12837 36145 ft 465 kts 272°
2026-05-08 15:33 41.86995 96.04165 36157 ft 466 kts 272°
2026-05-08 15:34 41.86951 95.95535 36143 ft 466 kts 272°
2026-05-08 15:34 41.86889 95.86785 36144 ft 466 kts 272°
2026-05-08 15:35 41.86817 95.78130 36134 ft 467 kts 272°
2026-05-08 15:35 41.86738 95.69428 36138 ft 466 kts 272°
2026-05-08 15:36 41.86669 95.62182 36130 ft 468 kts 271°
2026-05-08 15:36 41.86564 95.51981 36138 ft 468 kts 271°
2026-05-08 15:37 41.86466 95.43252 36106 ft 468 kts 271°
2026-05-08 15:37 41.86362 95.34531 36122 ft 468 kts 271°
2026-05-08 15:38 41.86634 95.25830 36104 ft 466 kts 281°
2026-05-08 15:38 41.88595 95.17616 36100 ft 462 kts 298°
2026-05-08 15:39 41.92256 95.10583 36092 ft 460 kts 310°
2026-05-08 15:39 41.96468 95.04100 36090 ft 461 kts 312°
2026-05-08 15:40 42.00740 94.97673 36075 ft 461 kts 312°
2026-05-08 15:40 42.04993 94.91211 36068 ft 462 kts 311°
2026-05-08 15:41 42.09226 94.84719 36069 ft 462 kts 311°
2026-05-08 15:41 42.13461 94.78193 36057 ft 461 kts 311°
2026-05-08 15:42 42.17649 94.71726 36046 ft 461 kts 311°
2026-05-08 15:42 42.21862 94.65209 36045 ft 461 kts 311°
2026-05-08 15:43 42.26073 94.58682 36045 ft 461 kts 311°
2026-05-08 15:43 42.30283 94.52143 36029 ft 462 kts 311°
2026-05-08 15:44 42.34491 94.45590 36030 ft 461 kts 311°
2026-05-08 15:44 42.38698 94.39026 36021 ft 461 kts 311°
2026-05-08 15:45 42.42892 94.32467 36024 ft 461 kts 311°
2026-05-08 15:45 42.47064 94.25928 36016 ft 461 kts 311°
2026-05-08 15:46 42.51253 94.19348 36007 ft 461 kts 311°
2026-05-08 15:46 42.55443 94.12752 36034 ft 461 kts 310°
2026-05-08 15:47 42.59625 94.06151 36018 ft 461 kts 310°
2026-05-08 15:47 42.63798 93.99552 36031 ft 461 kts 310°
2026-05-08 15:48 42.69344 93.90759 36011 ft 461 kts 310°
2026-05-08 15:49 42.74186 93.83058 36031 ft 460 kts 310°
2026-05-08 15:49 42.77666 93.77514 36015 ft 460 kts 310°
2026-05-08 15:50 42.81802 93.70871 36026 ft 459 kts 308°
2026-05-08 15:50 42.85076 93.63447 36037 ft 458 kts 292°
2026-05-08 15:51 42.87297 93.55305 36039 ft 459 kts 290°
2026-05-08 15:51 42.89340 93.47059 36045 ft 459 kts 289°
2026-05-08 15:52 42.91362 93.38801 36039 ft 459 kts 289°
2026-05-08 15:52 42.93398 93.30538 36032 ft 459 kts 289°
2026-05-08 15:53 42.95438 93.22281 36030 ft 459 kts 289°
2026-05-08 15:53 42.97473 93.14021 36025 ft 459 kts 289°
2026-05-08 15:54 42.99503 93.05753 36046 ft 459 kts 289°
2026-05-08 15:54 43.01523 92.97493 36047 ft 458 kts 289°
2026-05-08 15:55 43.03533 92.89240 36038 ft 458 kts 289°
2026-05-08 15:55 43.06527 92.76891 36036 ft 458 kts 289°
2026-05-08 15:56 43.08525 92.68616 36022 ft 458 kts 288°
2026-05-08 15:56 43.10515 92.60341 36024 ft 458 kts 288°
2026-05-08 15:57 43.12500 92.52060 36018 ft 458 kts 288°
2026-05-08 15:57 43.14479 92.43770 36015 ft 458 kts 288°
2026-05-08 15:58 43.16452 92.35477 36040 ft 458 kts 288°
2026-05-08 15:58 43.18421 92.27172 36037 ft 458 kts 288°
2026-05-08 15:59 43.20379 92.18876 36039 ft 458 kts 288°
2026-05-08 15:59 43.22337 92.10555 36029 ft 458 kts 288°
2026-05-08 16:00 43.24287 92.02237 36023 ft 458 kts 288°
2026-05-08 16:00 43.26231 91.93911 36041 ft 458 kts 288°
2026-05-08 16:01 43.28168 91.85586 36037 ft 459 kts 288°
2026-05-08 16:01 43.30101 91.77244 36028 ft 459 kts 288°
2026-05-08 16:02 43.32031 91.68889 36039 ft 459 kts 288°
2026-05-08 16:02 43.33954 91.60529 36053 ft 459 kts 288°
2026-05-08 16:03 43.35872 91.52159 36050 ft 459 kts 288°
2026-05-08 16:03 43.37781 91.43797 36058 ft 459 kts 288°
2026-05-08 16:04 43.39684 91.35427 36191 ft 458 kts 288°
2026-05-08 16:04 43.40630 91.31261 36503 ft 455 kts 288°
2026-05-08 16:04 43.41568 91.27126 36765 ft 453 kts 288°
2026-05-08 16:05 43.42501 91.22990 36997 ft 452 kts 288°
2026-05-08 16:05 43.43426 91.18868 37196 ft 451 kts 288°
2026-05-08 16:05 43.44350 91.14742 37323 ft 451 kts 288°
2026-05-08 16:05 43.45273 91.10614 37429 ft 452 kts 288°
2026-05-08 16:06 43.46198 91.06477 37569 ft 452 kts 288°
2026-05-08 16:06 43.47120 91.02348 37691 ft 452 kts 288°
2026-05-08 16:06 43.48034 90.98244 37840 ft 452 kts 288°
2026-05-08 16:06 43.48954 90.94108 37986 ft 452 kts 288°
2026-05-08 16:07 43.49875 90.89960 38099 ft 452 kts 288°
2026-05-08 16:07 43.50792 90.85819 38129 ft 454 kts 288°
2026-05-08 16:07 43.52641 90.77454 38140 ft 458 kts 288°
2026-05-08 16:08 43.54484 90.69072 38144 ft 455 kts 288°
2026-05-08 16:08 43.56299 90.60792 38167 ft 454 kts 288°
2026-05-08 16:09 43.58118 90.52463 38178 ft 454 kts 288°
2026-05-08 16:09 43.59934 90.44111 38193 ft 454 kts 288°
2026-05-08 16:10 43.61741 90.35774 38203 ft 454 kts 288°
2026-05-08 16:10 43.63545 90.27412 38207 ft 454 kts 288°
2026-05-08 16:11 43.65344 90.19042 38186 ft 455 kts 288°
2026-05-08 16:11 43.67139 90.10653 38190 ft 456 kts 288°
2026-05-08 16:12 43.68960 90.02264 38189 ft 456 kts 289°
2026-05-08 16:12 43.70881 89.93911 38175 ft 456 kts 289°
2026-05-08 16:13 43.72809 89.85548 38173 ft 457 kts 289°
2026-05-08 16:13 43.74717 89.77155 38176 ft 457 kts 289°
2026-05-08 16:14 43.76608 89.68763 38154 ft 457 kts 289°
2026-05-08 16:14 43.78489 89.60372 38152 ft 457 kts 289°
2026-05-08 16:15 43.80368 89.51959 38159 ft 457 kts 289°
2026-05-08 16:15 43.82287 89.43563 38159 ft 457 kts 289°
2026-05-08 16:16 43.84240 89.35179 38133 ft 457 kts 289°
2026-05-08 16:16 43.86180 89.26803 38145 ft 457 kts 289°
2026-05-08 16:17 43.87782 89.19836 38155 ft 457 kts 289°
2026-05-08 16:17 43.90028 89.10014 38157 ft 457 kts 289°
2026-05-08 16:18 43.91942 89.01609 38146 ft 457 kts 289°
2026-05-08 16:18 43.93852 88.93185 38145 ft 457 kts 289°
2026-05-08 16:19 43.95755 88.84765 38145 ft 457 kts 289°
2026-05-08 16:19 43.97697 88.76361 38185 ft 457 kts 291°
2026-05-08 16:20 43.99835 88.68043 38156 ft 457 kts 292°
2026-05-08 16:20 44.01980 88.59788 38178 ft 457 kts 291°
2026-05-08 16:21 44.04106 88.51452 38178 ft 458 kts 291°
2026-05-08 16:21 44.06209 88.43106 38154 ft 458 kts 291°
2026-05-08 16:22 44.08315 88.34700 38155 ft 461 kts 291°
2026-05-08 16:22 44.10419 88.26271 38156 ft 461 kts 291°
2026-05-08 16:23 44.12516 88.17847 38155 ft 461 kts 291°
2026-05-08 16:23 44.14611 88.09398 38120 ft 461 kts 291°
2026-05-08 16:24 44.16784 88.01001 38115 ft 462 kts 296°
2026-05-08 16:24 44.20059 87.93343 38107 ft 460 kts 307°
2026-05-08 16:25 44.23850 87.86167 38084 ft 460 kts 308°
2026-05-08 16:25 44.27711 87.79064 38086 ft 459 kts 308°
2026-05-08 16:26 44.31566 87.71942 38081 ft 459 kts 308°
2026-05-08 16:26 44.35415 87.64808 38072 ft 460 kts 308°
2026-05-08 16:27 44.39320 87.57716 38069 ft 460 kts 309°
2026-05-08 16:27 44.43224 87.50637 38066 ft 460 kts 309°
2026-05-08 16:28 44.47117 87.43541 38060 ft 459 kts 309°
2026-05-08 16:28 44.50997 87.36434 38053 ft 459 kts 309°
2026-05-08 16:29 44.54874 87.29314 38059 ft 459 kts 309°
2026-05-08 16:29 44.58826 87.22286 38059 ft 459 kts 311°
2026-05-08 16:30 44.62874 87.15394 38048 ft 456 kts 311°
2026-05-08 16:30 44.66905 87.08505 38048 ft 456 kts 311°
2026-05-08 16:31 44.70879 87.01642 38048 ft 456 kts 310°
2026-05-08 16:31 44.74876 86.94718 38044 ft 456 kts 310°
2026-05-08 16:32 44.78872 86.87786 38046 ft 455 kts 311°
2026-05-08 16:32 44.82851 86.80867 38043 ft 454 kts 311°
2026-05-08 16:33 44.86802 86.73932 38043 ft 454 kts 310°
2026-05-08 16:33 44.90707 86.66939 38039 ft 454 kts 310°
2026-05-08 16:34 44.94614 86.59924 38040 ft 454 kts 310°
2026-05-08 16:34 44.98514 86.52928 38032 ft 452 kts 310°
2026-05-08 16:35 45.02400 86.45950 38035 ft 452 kts 310°
2026-05-08 16:35 45.06283 86.38964 38034 ft 452 kts 310°
2026-05-08 16:36 45.10159 86.31971 38033 ft 452 kts 310°
2026-05-08 16:36 45.13379 86.26148 38034 ft 452 kts 310°
2026-05-08 16:37 45.17249 86.19132 38030 ft 452 kts 310°
2026-05-08 16:37 45.21118 86.12104 38026 ft 452 kts 309°
2026-05-08 16:38 45.24992 86.05047 38027 ft 454 kts 309°
2026-05-08 16:38 45.28868 85.97968 38028 ft 454 kts 309°
2026-05-08 16:39 45.32743 85.90875 38026 ft 454 kts 309°
2026-05-08 16:39 45.36597 85.83799 38028 ft 453 kts 309°
2026-05-08 16:40 45.40448 85.76715 38019 ft 452 kts 309°
2026-05-08 16:40 45.44291 85.69626 38021 ft 452 kts 309°
2026-05-08 16:41 45.48134 85.62522 38019 ft 453 kts 309°
2026-05-08 16:42 45.53888 85.51849 38013 ft 452 kts 309°
2026-05-08 16:42 45.57696 85.44763 38021 ft 452 kts 309°
2026-05-08 16:43 45.61516 85.37636 38015 ft 452 kts 309°
2026-05-08 16:43 45.65338 85.30489 38014 ft 452 kts 309°
2026-05-08 16:44 45.69162 85.23320 38029 ft 454 kts 308°
2026-05-08 16:44 45.72992 85.16159 38031 ft 453 kts 309°
2026-05-08 16:45 45.76823 85.09007 38048 ft 453 kts 308°
2026-05-08 16:45 45.80654 85.01834 38051 ft 453 kts 308°
2026-05-08 16:46 45.84481 84.94649 38068 ft 453 kts 308°
2026-05-08 16:46 45.88290 84.87479 38064 ft 451 kts 308°
2026-05-08 16:47 45.92084 84.80317 38066 ft 450 kts 308°
2026-05-08 16:47 45.95866 84.73158 38085 ft 450 kts 308°
2026-05-08 16:48 45.99641 84.65997 38094 ft 450 kts 308°
2026-05-08 16:48 46.03419 84.58811 38102 ft 450 kts 308°
2026-05-08 16:49 46.07177 84.51646 38110 ft 447 kts 307°
2026-05-08 16:49 46.10918 84.44492 38109 ft 446 kts 307°
2026-05-08 16:50 46.14650 84.37339 38136 ft 448 kts 307°
2026-05-08 16:50 46.18407 84.30120 38133 ft 450 kts 307°
2026-05-08 16:51 46.22156 84.22898 38151 ft 450 kts 307°
2026-05-08 16:51 46.25916 84.15637 38156 ft 452 kts 307°
2026-05-08 16:52 46.29677 84.08347 38125 ft 454 kts 306°
2026-05-08 16:52 46.33442 84.00976 38135 ft 454 kts 306°
2026-05-08 16:53 46.39061 83.89948 38130 ft 454 kts 306°
2026-05-08 16:53 46.42812 83.82568 38114 ft 454 kts 306°
2026-05-08 16:54 46.46554 83.75189 38111 ft 454 kts 306°
2026-05-08 16:54 46.50293 83.67798 38103 ft 454 kts 306°
2026-05-08 16:55 46.54002 83.60447 38104 ft 454 kts 306°
2026-05-08 16:55 46.57731 83.53035 38106 ft 454 kts 306°
2026-05-08 16:56 46.61452 83.45627 38099 ft 453 kts 305°
2026-05-08 16:56 46.65160 83.38217 38107 ft 453 kts 305°
2026-05-08 16:57 46.68732 83.30680 38103 ft 452 kts 301°
2026-05-08 16:57 46.72021 83.22862 38109 ft 452 kts 300°
2026-05-08 16:58 46.75294 83.15053 38106 ft 452 kts 301°
2026-05-08 16:58 46.78616 83.07261 38115 ft 452 kts 301°
2026-05-08 16:59 46.81944 82.99507 38116 ft 453 kts 301°
2026-05-08 16:59 46.85157 82.91596 38111 ft 452 kts 295°
2026-05-08 17:00 46.87086 82.82889 38119 ft 452 kts 281°
2026-05-08 17:00 46.88125 82.73826 38116 ft 452 kts 279°
2026-05-08 17:01 46.89021 82.64726 38110 ft 452 kts 278°
2026-05-08 17:01 46.89910 82.55637 38122 ft 452 kts 278°
2026-05-08 17:02 46.90810 82.46568 38116 ft 451 kts 278°
2026-05-08 17:02 46.91714 82.37482 38120 ft 451 kts 278°
2026-05-08 17:03 46.92613 82.28379 38108 ft 451 kts 278°
2026-05-08 17:03 46.93502 82.19295 38105 ft 451 kts 278°
2026-05-08 17:04 46.94382 82.10222 38097 ft 449 kts 278°
2026-05-08 17:04 46.95254 82.01163 38104 ft 449 kts 278°
2026-05-08 17:05 46.96118 81.92108 38090 ft 449 kts 278°
2026-05-08 17:05 46.96975 81.83052 38090 ft 449 kts 278°
2026-05-08 17:06 46.97807 81.74044 38082 ft 449 kts 278°
2026-05-08 17:06 46.98637 81.64998 38304 ft 448 kts 278°
2026-05-08 17:07 46.99051 81.60469 38078 ft 450 kts 278°
2026-05-08 17:07 46.99465 81.55919 38090 ft 451 kts 278°
2026-05-08 17:07 47.00287 81.46839 38093 ft 448 kts 278°
2026-05-08 17:08 47.01099 81.37789 38085 ft 448 kts 278°
2026-05-08 17:08 47.01903 81.28738 38085 ft 448 kts 278°
2026-05-08 17:09 47.02700 81.19684 38083 ft 448 kts 278°
2026-05-08 17:09 47.03491 81.10616 38082 ft 448 kts 278°
2026-05-08 17:10 47.04276 81.01545 38087 ft 448 kts 278°
2026-05-08 17:10 47.05058 80.92483 38069 ft 448 kts 277°
2026-05-08 17:11 47.05827 80.83386 38074 ft 450 kts 277°
2026-05-08 17:11 47.06589 80.74280 38063 ft 450 kts 277°
2026-05-08 17:12 47.07347 80.65158 38063 ft 450 kts 277°
2026-05-08 17:12 47.08099 80.56037 38055 ft 450 kts 277°
2026-05-08 17:13 47.08844 80.46916 38057 ft 451 kts 277°
2026-05-08 17:13 47.09581 80.37787 38046 ft 451 kts 277°
2026-05-08 17:14 47.10306 80.28709 38044 ft 451 kts 277°
2026-05-08 17:14 47.11030 80.19557 38044 ft 451 kts 277°
2026-05-08 17:15 47.11746 80.10420 38044 ft 451 kts 277°
2026-05-08 17:15 47.12454 80.01282 38039 ft 450 kts 276°
2026-05-08 17:16 47.13152 79.92177 38037 ft 450 kts 276°
2026-05-08 17:16 47.13850 79.83016 38039 ft 450 kts 276°
2026-05-08 17:17 47.14556 79.73898 38037 ft 449 kts 276°
2026-05-08 17:17 47.15258 79.64782 38029 ft 449 kts 276°
2026-05-08 17:18 47.15951 79.55669 38034 ft 449 kts 276°
2026-05-08 17:18 47.16635 79.46562 38038 ft 448 kts 276°
2026-05-08 17:19 47.17311 79.37445 38041 ft 449 kts 276°
2026-05-08 17:19 47.17980 79.28333 38046 ft 449 kts 276°
2026-05-08 17:20 47.18642 79.19208 38042 ft 449 kts 276°
2026-05-08 17:20 47.19299 79.10093 38040 ft 449 kts 276°
2026-05-08 17:21 47.19926 79.00966 38046 ft 449 kts 276°
2026-05-08 17:21 47.20540 78.91825 38042 ft 449 kts 275°
2026-05-08 17:22 47.21147 78.82740 38052 ft 449 kts 275°
2026-05-08 17:22 47.21758 78.73536 38052 ft 450 kts 275°
2026-05-08 17:23 47.22355 78.64443 38054 ft 450 kts 275°
2026-05-08 17:23 47.22950 78.55282 38080 ft 450 kts 275°
2026-05-08 17:24 47.23536 78.46117 38058 ft 450 kts 275°
2026-05-08 17:24 47.24116 78.36942 38057 ft 450 kts 275°
2026-05-08 17:25 47.24689 78.27759 38065 ft 451 kts 275°
2026-05-08 17:25 47.25254 78.18574 38065 ft 451 kts 275°
2026-05-08 17:26 47.25720 78.10925 38068 ft 451 kts 275°
2026-05-08 17:26 47.26272 78.01730 38067 ft 451 kts 275°
2026-05-08 17:27 47.26818 77.92519 38071 ft 451 kts 275°
2026-05-08 17:27 47.27356 77.83315 38072 ft 451 kts 275°
2026-05-08 17:28 47.27883 77.74175 38068 ft 451 kts 275°
2026-05-08 17:28 47.28409 77.64917 38069 ft 451 kts 275°
2026-05-08 17:29 47.28925 77.55711 38068 ft 451 kts 275°
2026-05-08 17:29 47.29434 77.46501 38075 ft 451 kts 274°
2026-05-08 17:30 47.29929 77.37401 38072 ft 441 kts 274°
2026-05-08 17:30 47.30409 77.28432 38071 ft 438 kts 274°
2026-05-08 17:31 47.30882 77.19471 38072 ft 439 kts 274°
2026-05-08 17:31 47.31350 77.10475 38069 ft 440 kts 274°
2026-05-08 17:32 47.31863 77.01507 38071 ft 440 kts 276°
2026-05-08 17:32 47.32788 76.92587 38071 ft 440 kts 278°
2026-05-08 17:33 47.33796 76.83695 38072 ft 440 kts 278°
2026-05-08 17:33 47.34740 76.74775 38069 ft 440 kts 278°
2026-05-08 17:34 47.35636 76.65845 38071 ft 440 kts 277°
2026-05-08 17:34 47.36514 76.56924 38068 ft 439 kts 277°
2026-05-08 17:35 47.37384 76.48024 38067 ft 438 kts 277°
2026-05-08 17:35 47.38246 76.39150 38067 ft 437 kts 277°
2026-05-08 17:36 47.39102 76.30271 38069 ft 437 kts 277°
2026-05-08 17:36 47.39947 76.21433 38063 ft 437 kts 277°
2026-05-08 17:37 47.40798 76.12468 38062 ft 438 kts 277°
2026-05-08 17:37 47.41634 76.03575 38062 ft 438 kts 277°
2026-05-08 17:38 47.42458 75.94731 38061 ft 437 kts 277°
2026-05-08 17:38 47.43281 75.85827 38067 ft 437 kts 276°
2026-05-08 17:39 47.44096 75.76931 38066 ft 437 kts 276°
2026-05-08 17:39 47.44905 75.68029 38064 ft 437 kts 276°
2026-05-08 17:40 47.45707 75.59123 38075 ft 437 kts 276°
2026-05-08 17:40 47.46501 75.50220 38055 ft 437 kts 276°
2026-05-08 17:41 47.47287 75.41326 38071 ft 437 kts 276°
2026-05-08 17:41 47.48067 75.32420 38072 ft 437 kts 276°
2026-05-08 17:42 47.48841 75.23513 38070 ft 437 kts 276°
2026-05-08 17:42 47.49607 75.14610 38068 ft 437 kts 275°
2026-05-08 17:43 47.50367 75.05695 38079 ft 437 kts 275°
2026-05-08 17:43 47.51119 74.96782 38070 ft 437 kts 275°
2026-05-08 17:44 47.51865 74.87862 38067 ft 437 kts 275°
2026-05-08 17:44 47.52603 74.78949 38066 ft 437 kts 275°
2026-05-08 17:45 47.53336 74.70011 38065 ft 438 kts 275°
2026-05-08 17:45 47.54064 74.61055 38071 ft 438 kts 275°
2026-05-08 17:46 47.54784 74.52105 38079 ft 438 kts 275°
2026-05-08 17:46 47.55497 74.43149 38065 ft 438 kts 275°
2026-05-08 17:47 47.56198 74.34248 38059 ft 438 kts 275°
2026-05-08 17:47 47.56785 74.26733 38094 ft 439 kts 275°
2026-05-08 17:48 47.57592 74.16290 38075 ft 440 kts 274°
2026-05-08 17:48 47.58280 74.07290 38077 ft 440 kts 274°
2026-05-08 17:49 47.58960 73.98297 38071 ft 440 kts 274°
2026-05-08 17:49 47.59634 73.89288 38084 ft 440 kts 274°
2026-05-08 17:50 47.60299 73.80302 38085 ft 440 kts 274°
2026-05-08 17:50 47.60959 73.71284 38088 ft 440 kts 274°
2026-05-08 17:51 47.61612 73.62271 38088 ft 440 kts 274°
2026-05-08 17:51 47.62257 73.53269 38089 ft 439 kts 274°
2026-05-08 17:52 47.62894 73.44264 38097 ft 439 kts 274°
2026-05-08 17:53 47.63839 73.30724 38101 ft 441 kts 274°
2026-05-08 17:53 47.64462 73.21675 38105 ft 441 kts 273°
2026-05-08 17:54 47.65078 73.12621 38097 ft 442 kts 273°
2026-05-08 17:54 47.65688 73.03547 38108 ft 442 kts 273°
2026-05-08 17:55 47.66289 72.94489 38089 ft 442 kts 273°
2026-05-08 17:55 47.66884 72.85428 38100 ft 441 kts 273°
2026-05-08 17:56 47.67471 72.76361 38095 ft 441 kts 273°
2026-05-08 17:56 47.68052 72.67291 38100 ft 441 kts 273°
2026-05-08 17:57 47.68621 72.58277 38094 ft 441 kts 273°
2026-05-08 17:57 47.69191 72.49149 38097 ft 441 kts 273°
2026-05-08 17:58 47.69746 72.40135 38093 ft 441 kts 273°
2026-05-08 17:58 47.70297 72.31078 38097 ft 441 kts 273°
2026-05-08 17:59 47.70842 72.21994 38084 ft 442 kts 272°
2026-05-08 17:59 47.71380 72.12901 38102 ft 443 kts 272°
2026-05-08 18:00 47.71913 72.03771 38094 ft 443 kts 272°
2026-05-08 18:00 47.72699 71.90086 38087 ft 443 kts 272°
2026-05-08 18:01 47.73213 71.80962 38091 ft 443 kts 272°
2026-05-08 18:01 47.73627 71.71836 38072 ft 443 kts 271°
2026-05-08 18:02 47.73918 71.64247 38070 ft 443 kts 271°
2026-05-08 18:02 47.74330 71.53619 38077 ft 445 kts 271°
2026-05-08 18:03 47.74694 71.44441 38064 ft 446 kts 271°
2026-05-08 18:03 47.75056 71.35240 38073 ft 446 kts 271°
2026-05-08 18:04 47.75410 71.26053 38067 ft 445 kts 271°
2026-05-08 18:04 47.75756 71.16858 38060 ft 445 kts 271°
2026-05-08 18:05 47.76095 71.07675 38066 ft 446 kts 271°
2026-05-08 18:05 47.76425 70.98480 38058 ft 446 kts 271°
2026-05-08 18:06 47.76749 70.89287 38043 ft 445 kts 271°
2026-05-08 18:06 47.77065 70.80116 38059 ft 446 kts 271°
2026-05-08 18:07 47.77375 70.70901 38040 ft 446 kts 271°
2026-05-08 18:07 47.77678 70.61692 38051 ft 445 kts 271°
2026-05-08 18:08 47.77975 70.52510 38037 ft 445 kts 270°
2026-05-08 18:08 47.78254 70.43373 38038 ft 445 kts 270°
2026-05-08 18:09 47.78529 70.34201 38043 ft 445 kts 270°
2026-05-08 18:09 47.78798 70.25014 38038 ft 445 kts 270°
2026-05-08 18:10 47.79061 70.15826 38053 ft 445 kts 270°
2026-05-08 18:10 47.79317 70.06625 38037 ft 446 kts 270°
2026-05-08 18:11 47.79566 69.97399 38037 ft 447 kts 270°
2026-05-08 18:11 47.79808 69.88163 38035 ft 447 kts 270°
2026-05-08 18:12 47.80043 69.78935 38043 ft 446 kts 270°
2026-05-08 18:12 47.80269 69.69728 38042 ft 445 kts 270°
2026-05-08 18:13 47.80488 69.60529 38043 ft 445 kts 269°
2026-05-08 18:13 47.80699 69.51335 38044 ft 445 kts 269°
2026-05-08 18:14 47.80903 69.42146 38038 ft 445 kts 269°
2026-05-08 18:14 47.81100 69.32954 38042 ft 445 kts 269°
2026-05-08 18:15 47.81288 69.23836 38049 ft 443 kts 269°
2026-05-08 18:15 47.81440 69.16184 38052 ft 442 kts 269°
2026-05-08 18:16 47.81615 69.07036 38054 ft 442 kts 269°
2026-05-08 18:16 47.81809 68.96382 38049 ft 444 kts 269°
2026-05-08 18:17 47.81943 68.88697 38055 ft 444 kts 269°
2026-05-08 18:17 47.81821 68.79541 38058 ft 442 kts 262°
2026-05-08 18:18 47.81094 68.70467 38060 ft 442 kts 261°
2026-05-08 18:18 47.80269 68.61464 38061 ft 442 kts 260°
2026-05-08 18:19 47.79424 68.52417 38063 ft 442 kts 260°
2026-05-08 18:19 47.78581 68.43369 38073 ft 442 kts 260°
2026-05-08 18:20 47.77739 68.34329 38066 ft 442 kts 260°
2026-05-08 18:20 47.76889 68.25283 38065 ft 442 kts 260°
2026-05-08 18:21 47.76031 68.16230 38066 ft 442 kts 260°
2026-05-08 18:21 47.75167 68.07193 38069 ft 442 kts 260°
2026-05-08 18:22 47.74296 67.98156 38067 ft 442 kts 260°
2026-05-08 18:22 47.73417 67.89116 38066 ft 442 kts 260°
2026-05-08 18:23 47.72533 67.80105 38066 ft 442 kts 259°
2026-05-08 18:23 47.71572 67.71092 38067 ft 441 kts 257°
2026-05-08 18:24 47.70217 67.62212 38066 ft 441 kts 255°
2026-05-08 18:24 47.68794 67.53370 38069 ft 440 kts 255°
2026-05-08 18:25 47.67424 67.44526 38079 ft 439 kts 256°
2026-05-08 18:25 47.66085 67.35685 38083 ft 439 kts 256°
2026-05-08 18:26 47.64745 67.26834 38088 ft 439 kts 256°
2026-05-08 18:26 47.63400 67.18001 38089 ft 439 kts 256°
2026-05-08 18:27 47.62276 67.10677 38089 ft 438 kts 256°
2026-05-08 18:27 47.60689 67.00393 38087 ft 438 kts 255°
2026-05-08 18:28 47.59324 66.91603 38090 ft 438 kts 255°
2026-05-08 18:28 47.57953 66.82820 38088 ft 438 kts 255°
2026-05-08 18:29 47.56576 66.74034 38091 ft 439 kts 255°
2026-05-08 18:29 47.55175 66.65234 38087 ft 440 kts 254°
2026-05-08 18:30 47.53716 66.56434 38087 ft 440 kts 254°
2026-05-08 18:30 47.52250 66.47650 38085 ft 440 kts 254°
2026-05-08 18:31 47.50784 66.38856 38085 ft 440 kts 254°
2026-05-08 18:31 47.49320 66.30091 38076 ft 439 kts 254°
2026-05-08 18:32 47.47848 66.21321 38076 ft 439 kts 254°
2026-05-08 18:32 47.46380 66.12621 38072 ft 439 kts 254°
2026-05-08 18:33 47.44896 66.03873 38071 ft 439 kts 254°
2026-05-08 18:33 47.43405 65.95127 38070 ft 439 kts 254°
2026-05-08 18:34 47.41908 65.86383 38068 ft 439 kts 254°
2026-05-08 18:34 47.40432 65.77647 38063 ft 439 kts 254°
2026-05-08 18:35 47.38995 65.68883 38054 ft 439 kts 254°
2026-05-08 18:35 47.37554 65.60136 38070 ft 439 kts 254°
2026-05-08 18:36 47.36098 65.51387 38055 ft 439 kts 254°
2026-05-08 18:36 47.34634 65.42657 38052 ft 438 kts 254°
2026-05-08 18:37 47.33164 65.33941 38052 ft 438 kts 254°
2026-05-08 18:37 47.31686 65.25220 38053 ft 438 kts 254°
2026-05-08 18:38 47.30205 65.16522 38048 ft 437 kts 254°
2026-05-08 18:38 47.28721 65.07846 38047 ft 437 kts 254°
2026-05-08 18:39 47.27229 64.99167 38049 ft 436 kts 254°
2026-05-08 18:39 47.25731 64.90508 38047 ft 436 kts 253°
2026-05-08 18:40 47.24227 64.81865 38065 ft 436 kts 253°
2026-05-08 18:40 47.22715 64.73219 38039 ft 437 kts 253°
2026-05-08 18:41 47.21194 64.64560 38042 ft 437 kts 253°
2026-05-08 18:41 47.19668 64.55912 38057 ft 437 kts 253°
2026-05-08 18:42 47.18145 64.47280 38040 ft 436 kts 253°
2026-05-08 18:42 47.16617 64.38669 38045 ft 437 kts 253°
2026-05-08 18:43 47.15070 64.29996 38046 ft 438 kts 253°
2026-05-08 18:43 47.13519 64.21339 38056 ft 438 kts 253°
2026-05-08 18:44 47.11962 64.12686 38049 ft 438 kts 253°
2026-05-08 18:44 47.10400 64.04046 38064 ft 438 kts 253°
2026-05-08 18:45 47.08831 63.95412 38057 ft 438 kts 253°
2026-05-08 18:45 47.07265 63.86829 38043 ft 438 kts 253°
2026-05-08 18:46 47.05689 63.78231 38044 ft 438 kts 253°
2026-05-08 18:46 47.04086 63.69530 38050 ft 438 kts 253°
2026-05-08 18:47 47.02491 63.60913 38048 ft 438 kts 253°
2026-05-08 18:47 47.00888 63.52294 38049 ft 439 kts 252°
2026-05-08 18:48 46.99288 63.43728 38059 ft 439 kts 252°
2026-05-08 18:48 46.97670 63.35109 37976 ft 439 kts 252°
2026-05-08 18:49 46.96861 63.30819 38143 ft 439 kts 252°
2026-05-08 18:49 46.96043 63.26489 38050 ft 442 kts 252°
2026-05-08 18:49 46.94406 63.17843 38047 ft 440 kts 252°
2026-05-08 18:50 46.92768 63.09225 38043 ft 439 kts 252°
2026-05-08 18:50 46.91123 63.00617 38051 ft 439 kts 252°
2026-05-08 18:51 46.89470 62.92013 38052 ft 439 kts 252°
2026-05-08 18:51 46.87812 62.83415 38049 ft 440 kts 252°
2026-05-08 18:52 46.86144 62.74808 38047 ft 440 kts 252°
2026-05-08 18:52 46.84471 62.66208 38047 ft 440 kts 252°
2026-05-08 18:53 46.82790 62.57607 38047 ft 440 kts 252°
2026-05-08 18:53 46.81106 62.49028 38052 ft 440 kts 252°
2026-05-08 18:54 46.79417 62.40459 38043 ft 442 kts 252°
2026-05-08 18:54 46.77709 62.31835 38044 ft 442 kts 252°
2026-05-08 18:55 46.75136 62.18909 38046 ft 442 kts 252°
2026-05-08 18:56 46.73413 62.10305 38042 ft 442 kts 252°
2026-05-08 18:56 46.71682 62.01696 38041 ft 442 kts 252°
2026-05-08 18:57 46.69946 61.93099 38043 ft 443 kts 252°
2026-05-08 18:57 46.68200 61.84491 38043 ft 443 kts 252°
2026-05-08 18:58 46.66450 61.75899 38045 ft 443 kts 251°
2026-05-08 18:58 46.64709 61.67388 38042 ft 443 kts 251°
2026-05-08 18:59 46.62942 61.58787 38046 ft 443 kts 251°
2026-05-08 18:59 46.61172 61.50212 38048 ft 443 kts 251°
2026-05-08 19:00 46.59684 61.43026 37987 ft 443 kts 251°
2026-05-08 19:00 46.57610 61.33057 38048 ft 443 kts 251°
2026-05-08 19:01 46.55820 61.24492 38048 ft 443 kts 251°
2026-05-08 19:01 46.54022 61.15927 38044 ft 443 kts 251°
2026-05-08 19:02 46.52220 61.07374 38038 ft 443 kts 251°
2026-05-08 19:02 46.50410 60.98823 38054 ft 443 kts 251°
2026-05-08 19:02 46.49503 60.94551 37883 ft 443 kts 252°
2026-05-08 19:03 46.48592 60.90274 38082 ft 446 kts 251°
2026-05-08 19:03 46.47062 60.83106 37944 ft 447 kts 251°
2026-05-08 19:04 46.45227 60.74531 37948 ft 444 kts 251°
2026-05-08 19:04 46.43392 60.65998 37947 ft 443 kts 251°
2026-05-08 19:05 46.41553 60.57480 37947 ft 444 kts 251°
2026-05-08 19:05 46.39700 60.48936 37946 ft 444 kts 251°
2026-05-08 19:06 46.37844 60.40411 37947 ft 444 kts 251°
2026-05-08 19:06 46.35978 60.31880 37947 ft 444 kts 250°
2026-05-08 19:07 46.34107 60.23355 37946 ft 444 kts 250°
2026-05-08 19:07 46.32229 60.14833 37946 ft 444 kts 250°
2026-05-08 19:08 46.30344 60.06319 37950 ft 444 kts 250°
2026-05-08 19:08 46.28456 59.97820 37949 ft 444 kts 250°
2026-05-08 19:09 46.26557 59.89309 37943 ft 444 kts 250°
2026-05-08 19:09 46.24657 59.80825 37947 ft 445 kts 250°
2026-05-08 19:10 46.22756 59.72371 37952 ft 445 kts 250°
2026-05-08 19:10 46.20822 59.63830 37952 ft 445 kts 250°
2026-05-08 19:11 46.18895 59.55399 37952 ft 445 kts 250°
2026-05-08 19:11 46.16949 59.46915 37953 ft 445 kts 250°
2026-05-08 19:12 46.14998 59.38437 37952 ft 446 kts 250°
2026-05-08 19:12 46.13039 59.29952 37953 ft 447 kts 250°
2026-05-08 19:13 46.11070 59.21452 37953 ft 448 kts 250°
2026-05-08 19:13 46.09089 59.12941 37960 ft 448 kts 250°
2026-05-08 19:14 46.07102 59.04435 37952 ft 448 kts 250°
2026-05-08 19:14 46.05108 58.95929 37954 ft 449 kts 249°
2026-05-08 19:15 46.03107 58.87431 37951 ft 448 kts 249°
2026-05-08 19:15 46.01100 58.78936 37966 ft 448 kts 249°
2026-05-08 19:16 45.99086 58.70446 37960 ft 447 kts 249°
2026-05-08 19:16 45.97075 58.62001 37960 ft 447 kts 249°
2026-05-08 19:17 45.95053 58.53542 37958 ft 447 kts 249°
2026-05-08 19:17 45.93030 58.45113 37962 ft 447 kts 249°
2026-05-08 19:18 45.90994 58.36662 37961 ft 448 kts 249°
2026-05-08 19:18 45.88948 58.28202 37966 ft 448 kts 249°
2026-05-08 19:19 45.86898 58.19751 37963 ft 448 kts 249°
2026-05-08 19:19 45.84842 58.11313 37960 ft 448 kts 249°
2026-05-08 19:20 45.82783 58.02891 37959 ft 448 kts 249°
2026-05-08 19:20 45.80726 57.94514 37967 ft 448 kts 249°
2026-05-08 19:21 45.78654 57.86103 37969 ft 448 kts 249°
2026-05-08 19:21 45.76575 57.77695 37949 ft 448 kts 249°
2026-05-08 19:22 45.74491 57.69299 37975 ft 448 kts 249°
2026-05-08 19:22 45.72401 57.60888 37977 ft 448 kts 248°
2026-05-08 19:23 45.70302 57.52501 37958 ft 448 kts 248°
2026-05-08 19:23 45.68190 57.44100 37958 ft 448 kts 248°
2026-05-08 19:24 45.66078 57.35719 37958 ft 448 kts 248°
2026-05-08 19:24 45.63956 57.27327 37963 ft 449 kts 248°
2026-05-08 19:25 45.61831 57.18955 37982 ft 449 kts 248°
2026-05-08 19:25 45.59696 57.10569 37963 ft 449 kts 248°
2026-05-08 19:26 45.57559 57.02211 37969 ft 449 kts 248°
2026-05-08 19:26 45.55412 56.93843 37968 ft 449 kts 248°
2026-05-08 19:27 45.53258 56.85477 37968 ft 449 kts 248°
2026-05-08 19:27 45.51098 56.77115 37965 ft 449 kts 248°
2026-05-08 19:28 45.48930 56.68755 37988 ft 449 kts 248°
2026-05-08 19:28 45.46758 56.60410 37975 ft 449 kts 248°
2026-05-08 19:29 45.44599 56.52144 37967 ft 449 kts 248°
2026-05-08 19:29 45.42398 56.43745 37965 ft 449 kts 248°
2026-05-08 19:30 45.40224 56.35481 37966 ft 449 kts 248°
2026-05-08 19:30 45.38029 56.27165 37969 ft 449 kts 247°
2026-05-08 19:31 45.35828 56.18855 37974 ft 449 kts 247°
2026-05-08 19:31 45.33622 56.10558 37972 ft 449 kts 247°
2026-05-08 19:32 45.31410 56.02266 37978 ft 449 kts 247°
2026-05-08 19:32 45.29191 55.93977 37975 ft 449 kts 247°
2026-05-08 19:33 45.26958 55.85667 37979 ft 452 kts 247°
2026-05-08 19:33 45.24706 55.77315 37976 ft 453 kts 247°
2026-05-08 19:34 45.22449 55.68969 37977 ft 453 kts 247°
2026-05-08 19:34 45.20185 55.60625 37977 ft 454 kts 247°
2026-05-08 19:35 45.17906 55.52259 37976 ft 455 kts 247°
2026-05-08 19:35 45.15626 55.43921 37979 ft 455 kts 247°
2026-05-08 19:36 45.13332 55.35556 37979 ft 454 kts 247°
2026-05-08 19:36 45.11039 55.27223 37981 ft 455 kts 247°
2026-05-08 19:37 45.08301 55.19182 37982 ft 453 kts 236°
2026-05-08 19:37 45.04200 55.12446 37984 ft 453 kts 224°
2026-05-08 19:38 44.99588 55.06381 37984 ft 454 kts 223°
2026-05-08 19:38 44.94907 55.00407 37984 ft 452 kts 223°
2026-05-08 19:39 44.90259 54.94453 37994 ft 451 kts 223°
2026-05-08 19:39 44.85630 54.88495 37990 ft 451 kts 223°
2026-05-08 19:40 44.81005 54.82542 37993 ft 451 kts 223°
2026-05-08 19:40 44.76360 54.76578 37996 ft 452 kts 223°
2026-05-08 19:41 44.71733 54.70654 37998 ft 453 kts 223°
2026-05-08 19:41 44.67121 54.64613 38001 ft 453 kts 227°
2026-05-08 19:42 44.63242 54.57670 38002 ft 453 kts 234°
2026-05-08 19:42 44.59614 54.50425 38003 ft 455 kts 235°
2026-05-08 19:43 44.56007 54.43123 38007 ft 455 kts 234°
2026-05-08 19:43 44.52386 54.35842 38013 ft 455 kts 234°
2026-05-08 19:44 44.48756 54.28593 38013 ft 455 kts 234°
2026-05-08 19:44 44.45107 54.21334 38019 ft 455 kts 234°
2026-05-08 19:45 44.41468 54.14111 38023 ft 453 kts 234°
2026-05-08 19:45 44.37836 54.06919 38023 ft 453 kts 234°
2026-05-08 19:46 44.34192 53.99720 38018 ft 454 kts 234°
2026-05-08 19:46 44.28707 53.88918 38017 ft 455 kts 234°
2026-05-08 19:47 44.25041 53.81721 38020 ft 455 kts 234°
2026-05-08 19:47 44.21371 53.74535 38021 ft 455 kts 234°
2026-05-08 19:48 44.17697 53.67358 38020 ft 455 kts 234°
2026-05-08 19:48 44.14026 53.60203 38029 ft 455 kts 234°
2026-05-08 19:49 44.10340 53.53040 38029 ft 455 kts 234°
2026-05-08 19:49 44.06649 53.45883 38031 ft 456 kts 234°
2026-05-08 19:50 44.02953 53.38733 38027 ft 456 kts 234°
2026-05-08 19:50 43.99248 53.31584 38025 ft 456 kts 234°
2026-05-08 19:51 43.96166 53.25650 38023 ft 456 kts 234°
2026-05-08 19:51 43.92446 53.18503 38031 ft 457 kts 234°
2026-05-08 19:52 43.88722 53.11367 38031 ft 457 kts 234°
2026-05-08 19:52 43.84385 53.03071 38028 ft 457 kts 234°
2026-05-08 19:53 43.81249 52.97100 38040 ft 458 kts 234°
2026-05-08 19:53 43.77495 52.89970 38042 ft 458 kts 234°
2026-05-08 19:54 43.73764 52.82895 38042 ft 458 kts 234°
2026-05-08 19:54 43.69977 52.75729 38048 ft 459 kts 234°
2026-05-08 19:55 43.66240 52.68676 38030 ft 459 kts 234°
2026-05-08 19:55 43.62467 52.61574 38055 ft 457 kts 234°
2026-05-08 19:56 43.58696 52.54527 38058 ft 456 kts 233°
2026-05-08 19:56 43.54923 52.47494 38057 ft 456 kts 233°
2026-05-08 19:57 43.51141 52.40453 38041 ft 457 kts 233°
2026-05-08 19:57 43.47361 52.33432 38042 ft 457 kts 233°
2026-05-08 19:58 43.43573 52.26411 38046 ft 457 kts 233°
2026-05-08 19:58 43.39780 52.19398 38048 ft 457 kts 233°
2026-05-08 19:59 43.35980 52.12389 38069 ft 457 kts 233°
2026-05-08 19:59 43.32177 52.05390 38074 ft 457 kts 233°
2026-05-08 20:00 43.28372 51.98405 38054 ft 457 kts 233°
2026-05-08 20:00 43.24560 51.91423 38053 ft 457 kts 233°
2026-05-08 20:01 43.20737 51.84437 38075 ft 457 kts 233°
2026-05-08 20:01 43.16916 51.77474 38061 ft 457 kts 233°
2026-05-08 20:02 43.13090 51.70515 38059 ft 458 kts 233°
2026-05-08 20:02 43.09251 51.63551 38058 ft 458 kts 233°
2026-05-08 20:03 43.05431 51.56637 38058 ft 458 kts 233°
2026-05-08 20:03 43.01587 51.49695 38123 ft 458 kts 233°
2026-05-08 20:04 42.97732 51.42751 38121 ft 459 kts 233°
2026-05-08 20:04 42.93872 51.35813 38121 ft 459 kts 233°
2026-05-08 20:05 42.90009 51.28886 38127 ft 459 kts 233°
2026-05-08 20:05 42.86143 51.21971 38106 ft 459 kts 233°
2026-05-08 20:06 42.82281 51.15079 38138 ft 455 kts 233°
2026-05-08 20:06 42.78445 51.08247 38123 ft 454 kts 233°
2026-05-08 20:07 42.74602 51.01420 38133 ft 455 kts 233°
2026-05-08 20:07 42.70746 50.94585 38130 ft 456 kts 232°
2026-05-08 20:08 42.66878 50.87745 38149 ft 456 kts 232°
2026-05-08 20:08 42.63012 50.80923 38150 ft 456 kts 232°
2026-05-08 20:09 42.59135 50.74099 38128 ft 457 kts 233°
2026-05-08 20:09 42.55269 50.67308 38132 ft 457 kts 232°
2026-05-08 20:10 42.51381 50.60496 38132 ft 457 kts 232°
2026-05-08 20:10 42.47484 50.53682 38157 ft 457 kts 232°
2026-05-08 20:11 42.43580 50.46871 38142 ft 458 kts 232°
2026-05-08 20:11 42.39789 50.39932 38140 ft 458 kts 235°
2026-05-08 20:12 42.36131 50.32881 38148 ft 458 kts 235°
2026-05-08 20:12 42.32449 50.25834 38143 ft 459 kts 235°
2026-05-08 20:13 42.28764 50.18870 38143 ft 459 kts 234°
2026-05-08 20:13 42.25029 50.11862 38144 ft 459 kts 234°
2026-05-08 20:14 42.21296 50.04873 38146 ft 459 kts 234°
2026-05-08 20:14 42.17557 49.97888 38147 ft 459 kts 234°
2026-05-08 20:15 42.13811 49.90904 38146 ft 459 kts 234°
2026-05-08 20:15 42.10068 49.83940 38152 ft 460 kts 234°
2026-05-08 20:16 42.06309 49.76964 38148 ft 460 kts 234°
2026-05-08 20:16 42.02546 49.69996 38146 ft 460 kts 234°
2026-05-08 20:17 41.98779 49.63036 38146 ft 460 kts 234°
2026-05-08 20:17 41.95006 49.56082 38144 ft 459 kts 234°
2026-05-08 20:18 41.91279 49.49229 38149 ft 456 kts 234°
2026-05-08 20:18 41.87533 49.42356 38151 ft 456 kts 233°
2026-05-08 20:19 41.83766 49.35458 38154 ft 456 kts 233°
2026-05-08 20:19 41.80030 49.28613 38147 ft 458 kts 234°
2026-05-08 20:20 41.76496 49.21588 38152 ft 458 kts 236°
2026-05-08 20:20 41.73009 49.14427 38153 ft 458 kts 236°
2026-05-08 20:21 41.69500 49.07312 38151 ft 458 kts 236°
2026-05-08 20:21 41.65962 49.00229 38150 ft 458 kts 236°
2026-05-08 20:22 41.62411 48.93159 38154 ft 458 kts 236°
2026-05-08 20:22 41.59456 48.87289 38155 ft 458 kts 236°
2026-05-08 20:23 41.55296 48.79039 38154 ft 458 kts 236°
2026-05-08 20:23 41.51729 48.71992 38161 ft 458 kts 235°
2026-05-08 20:24 41.47964 48.65145 38174 ft 458 kts 232°
2026-05-08 20:24 41.44088 48.58374 38169 ft 459 kts 232°
2026-05-08 20:25 41.40285 48.51650 38179 ft 459 kts 233°
2026-05-08 20:25 41.36534 48.44764 38191 ft 460 kts 234°
2026-05-08 20:26 41.32796 48.37853 38197 ft 461 kts 234°
2026-05-08 20:26 41.29036 48.30948 38197 ft 461 kts 233°
2026-05-08 20:27 41.25262 48.24060 38208 ft 461 kts 233°
2026-05-08 20:27 41.21473 48.17163 38211 ft 461 kts 233°
2026-05-08 20:28 41.17685 48.10285 38211 ft 461 kts 233°
2026-05-08 20:28 41.13892 48.03407 38216 ft 462 kts 233°
2026-05-08 20:29 41.10795 47.95954 38330 ft 465 kts 248°
2026-05-08 20:29 41.09834 47.91849 38504 ft 467 kts 253°
2026-05-08 20:29 41.09032 47.87687 38759 ft 466 kts 255°
2026-05-08 20:30 41.08283 47.83498 38933 ft 467 kts 255°
2026-05-08 20:30 41.07557 47.79308 39081 ft 467 kts 256°
2026-05-08 20:30 41.06835 47.75120 39225 ft 467 kts 255°
2026-05-08 20:30 41.06109 47.70941 39386 ft 466 kts 255°
2026-05-08 20:31 41.05373 47.66753 39540 ft 466 kts 255°
2026-05-08 20:31 41.04632 47.62580 39692 ft 465 kts 255°
2026-05-08 20:31 41.03886 47.58410 39831 ft 465 kts 255°
2026-05-08 20:31 41.03138 47.54249 39963 ft 465 kts 255°
2026-05-08 20:32 41.02388 47.50090 40081 ft 465 kts 255°
2026-05-08 20:32 41.01634 47.45917 40186 ft 465 kts 255°
2026-05-08 20:32 41.00123 47.37583 40222 ft 466 kts 255°
2026-05-08 20:33 40.98603 47.29230 40222 ft 468 kts 255°
2026-05-08 20:33 40.97071 47.20848 40219 ft 469 kts 255°
2026-05-08 20:34 40.95533 47.12465 40219 ft 469 kts 255°
2026-05-08 20:35 40.93221 46.99938 40210 ft 469 kts 255°
2026-05-08 20:35 40.91667 46.91565 40203 ft 469 kts 255°
2026-05-08 20:36 40.90145 46.83184 40195 ft 469 kts 258°
2026-05-08 20:36 40.89206 46.74693 40197 ft 470 kts 261°
2026-05-08 20:37 40.88385 46.66058 40191 ft 470 kts 261°
2026-05-08 20:37 40.87591 46.57536 40194 ft 471 kts 262°
2026-05-08 20:38 40.86777 46.48942 40188 ft 472 kts 262°
2026-05-08 20:38 40.85953 46.40379 40192 ft 472 kts 261°
2026-05-08 20:39 40.85115 46.31752 40189 ft 472 kts 261°
2026-05-08 20:39 40.84273 46.23162 40197 ft 472 kts 261°
2026-05-08 20:40 40.83425 46.14571 40194 ft 472 kts 261°
2026-05-08 20:40 40.82572 46.05991 40194 ft 472 kts 261°
2026-05-08 20:41 40.81709 45.97378 40192 ft 473 kts 261°
2026-05-08 20:41 40.80838 45.88757 40205 ft 474 kts 261°
2026-05-08 20:42 40.79962 45.80140 40206 ft 474 kts 261°
2026-05-08 20:42 40.79227 45.72970 40210 ft 474 kts 261°
2026-05-08 20:43 40.78337 45.64344 40212 ft 474 kts 261°
2026-05-08 20:43 40.77447 45.55781 40218 ft 474 kts 261°
2026-05-08 20:44 40.77062 45.47053 40222 ft 475 kts 270°
2026-05-08 20:44 40.77375 45.38391 40228 ft 476 kts 272°
2026-05-08 20:45 40.77792 45.29666 40223 ft 477 kts 272°
2026-05-08 20:45 40.78206 45.20937 40232 ft 477 kts 272°
2026-05-08 20:46 40.78600 45.12197 40231 ft 477 kts 272°
2026-05-08 20:46 40.78981 45.03451 40245 ft 477 kts 272°
2026-05-08 20:47 40.79352 44.94721 40239 ft 477 kts 272°
2026-05-08 20:47 40.79718 44.85986 40240 ft 476 kts 272°
2026-05-08 20:48 40.80077 44.77265 40247 ft 476 kts 272°
2026-05-08 20:48 40.80431 44.68527 40247 ft 476 kts 272°
2026-05-08 20:49 40.80777 44.59802 40261 ft 476 kts 272°
2026-05-08 20:49 40.81117 44.51070 40250 ft 476 kts 272°
2026-05-08 20:50 40.81450 44.42338 40255 ft 476 kts 272°
2026-05-08 20:50 40.81777 44.33606 40258 ft 476 kts 272°
2026-05-08 20:51 40.82096 44.24889 40265 ft 476 kts 272°
2026-05-08 20:51 40.82409 44.16162 40267 ft 476 kts 272°
2026-05-08 20:52 40.82717 44.07422 40264 ft 477 kts 272°
2026-05-08 20:52 40.83017 43.98675 40265 ft 477 kts 272°
2026-05-08 20:53 40.83311 43.89932 40294 ft 477 kts 272°
2026-05-08 20:53 40.83601 43.81152 40264 ft 479 kts 272°
2026-05-08 20:54 40.83888 43.72385 40265 ft 478 kts 272°
2026-05-08 20:54 40.84201 43.63668 40262 ft 479 kts 274°
2026-05-08 20:55 40.84708 43.54901 40267 ft 479 kts 275°
2026-05-08 20:55 40.85240 43.46132 40268 ft 479 kts 274°
2026-05-08 20:56 40.85737 43.37365 40271 ft 479 kts 274°
2026-05-08 20:56 40.86211 43.28590 40273 ft 479 kts 274°
2026-05-08 20:57 40.86675 43.19822 40277 ft 479 kts 274°
2026-05-08 20:57 40.87132 43.11045 40279 ft 479 kts 274°
2026-05-08 20:58 40.87584 43.02271 40281 ft 479 kts 274°
2026-05-08 20:58 40.88028 42.93507 40289 ft 479 kts 274°
2026-05-08 20:59 40.88464 42.84779 40283 ft 478 kts 274°
2026-05-08 20:59 40.88896 42.76006 40289 ft 478 kts 274°
2026-05-08 21:00 40.89322 42.67249 40268 ft 478 kts 273°
2026-05-08 21:00 40.89739 42.58488 40287 ft 477 kts 274°
2026-05-08 21:01 40.90149 42.49739 40283 ft 477 kts 274°
2026-05-08 21:01 40.90554 42.40965 40278 ft 479 kts 274°
2026-05-08 21:02 40.90950 42.32238 40277 ft 479 kts 274°
2026-05-08 21:02 40.91345 42.23394 40271 ft 478 kts 274°
2026-05-08 21:03 40.91729 42.14634 40275 ft 477 kts 274°
2026-05-08 21:03 40.92107 42.05872 40266 ft 477 kts 274°
2026-05-08 21:04 40.92478 41.97106 40259 ft 477 kts 274°
2026-05-08 21:04 40.92842 41.88341 40263 ft 477 kts 274°
2026-05-08 21:05 40.93201 41.79571 40257 ft 477 kts 274°
2026-05-08 21:05 40.93549 41.70866 40247 ft 476 kts 274°
2026-05-08 21:06 40.93892 41.62126 40256 ft 475 kts 274°
2026-05-08 21:06 40.94228 41.53417 40244 ft 474 kts 274°
2026-05-08 21:07 40.94558 41.44701 40251 ft 474 kts 274°
2026-05-08 21:07 40.94881 41.35987 40241 ft 474 kts 274°
2026-05-08 21:08 40.95198 41.27267 40243 ft 475 kts 274°
2026-05-08 21:08 40.95508 41.18552 40228 ft 474 kts 274°
2026-05-08 21:09 40.95809 41.09854 40225 ft 473 kts 274°
2026-05-08 21:09 40.96105 41.01155 40222 ft 473 kts 274°
2026-05-08 21:09 40.96250 40.96806 39748 ft 473 kts 274°
2026-05-08 21:10 40.96394 40.92468 40272 ft 473 kts 274°
2026-05-08 21:10 40.96680 40.83730 40194 ft 475 kts 274°
2026-05-08 21:11 40.96954 40.75080 40195 ft 473 kts 274°
2026-05-08 21:11 40.97221 40.66379 40199 ft 473 kts 274°
2026-05-08 21:12 40.97484 40.57665 40201 ft 473 kts 274°
2026-05-08 21:12 40.97740 40.48958 40207 ft 474 kts 273°
2026-05-08 21:13 40.97991 40.40246 40204 ft 474 kts 274°
2026-05-08 21:13 40.98234 40.31540 40206 ft 474 kts 273°
2026-05-08 21:14 40.98471 40.22824 40199 ft 474 kts 273°
2026-05-08 21:14 40.98707 40.14105 40195 ft 474 kts 273°
2026-05-08 21:15 40.98924 40.05418 40191 ft 474 kts 273°
2026-05-08 21:15 40.99134 39.96712 40186 ft 473 kts 273°
2026-05-08 21:16 40.99340 39.87996 40186 ft 473 kts 273°
2026-05-08 21:16 40.99627 39.79295 40185 ft 473 kts 278°
2026-05-08 21:17 41.00379 39.70655 40188 ft 472 kts 278°
2026-05-08 21:17 41.01205 39.62032 40298 ft 473 kts 278°
2026-05-08 21:18 41.02043 39.53344 40192 ft 479 kts 277°
2026-05-08 21:18 41.02877 39.44556 40192 ft 482 kts 277°
2026-05-08 21:19 41.03701 39.35756 40206 ft 481 kts 277°
2026-05-08 21:19 41.04509 39.27027 40200 ft 481 kts 277°
2026-05-08 21:20 41.05323 39.18175 40197 ft 481 kts 277°
2026-05-08 21:20 41.06124 39.09468 40191 ft 481 kts 277°
2026-05-08 21:21 41.06938 39.00673 40189 ft 481 kts 277°
2026-05-08 21:21 41.07744 38.91879 40189 ft 481 kts 277°
2026-05-08 21:22 41.08543 38.83085 40183 ft 481 kts 277°
2026-05-08 21:22 41.09335 38.74290 40187 ft 481 kts 277°
2026-05-08 21:23 41.10123 38.65488 40178 ft 480 kts 277°
2026-05-08 21:23 41.10879 38.56685 40178 ft 480 kts 277°
2026-05-08 21:24 41.11610 38.47885 40178 ft 480 kts 277°
2026-05-08 21:24 41.12338 38.39070 40176 ft 481 kts 277°
2026-05-08 21:25 41.13064 38.30256 40179 ft 481 kts 277°
2026-05-08 21:25 41.13791 38.21441 40180 ft 481 kts 277°
2026-05-08 21:26 41.14511 38.12625 40181 ft 480 kts 277°
2026-05-08 21:26 41.15220 38.03833 40181 ft 479 kts 277°
2026-05-08 21:27 41.15924 37.95033 40180 ft 479 kts 277°
2026-05-08 21:27 41.16625 37.86234 40181 ft 479 kts 277°
2026-05-08 21:28 41.17368 37.77441 40177 ft 479 kts 277°
2026-05-08 21:28 41.18121 37.68661 40179 ft 479 kts 277°
2026-05-08 21:29 41.18860 37.59871 40179 ft 479 kts 277°
2026-05-08 21:29 41.19379 37.51055 40179 ft 479 kts 275°
2026-05-08 21:30 41.19970 37.42251 40182 ft 478 kts 277°
2026-05-08 21:30 41.20628 37.33472 40177 ft 477 kts 277°
2026-05-08 21:31 41.21175 37.26190 40178 ft 477 kts 277°
2026-05-08 21:31 41.21832 37.17422 40179 ft 477 kts 277°
2026-05-08 21:32 41.22517 37.08667 40178 ft 477 kts 277°
2026-05-08 21:32 41.23199 36.99896 40171 ft 477 kts 277°
2026-05-08 21:33 41.23869 36.91135 40181 ft 477 kts 277°
2026-05-08 21:33 41.24530 36.82370 40182 ft 476 kts 277°
2026-05-08 21:34 41.25182 36.73618 40182 ft 476 kts 277°
2026-05-08 21:34 41.25829 36.64853 40183 ft 476 kts 277°
2026-05-08 21:35 41.26461 36.56205 40176 ft 476 kts 277°
2026-05-08 21:35 41.27091 36.47439 40172 ft 476 kts 277°
2026-05-08 21:36 41.27708 36.38683 40168 ft 476 kts 277°
2026-05-08 21:36 41.28319 36.29919 40167 ft 476 kts 277°
2026-05-08 21:37 41.28924 36.21154 40166 ft 476 kts 277°
2026-05-08 21:37 41.29523 36.12379 40160 ft 476 kts 277°
2026-05-08 21:38 41.30115 36.03622 40158 ft 476 kts 277°
2026-05-08 21:38 41.30699 35.94864 40153 ft 475 kts 277°
2026-05-08 21:39 41.31277 35.86110 39939 ft 474 kts 277°
2026-05-08 21:39 41.31560 35.81769 40104 ft 467 kts 277°
2026-05-08 21:39 41.31837 35.77496 40150 ft 461 kts 277°
2026-05-08 21:40 41.32379 35.69069 40155 ft 456 kts 277°
2026-05-08 21:40 41.32916 35.60660 40153 ft 456 kts 277°
2026-05-08 21:41 41.33710 35.48055 40147 ft 456 kts 277°
2026-05-08 21:41 41.34231 35.39641 40149 ft 456 kts 277°
2026-05-08 21:42 41.34745 35.31233 40147 ft 455 kts 277°
2026-05-08 21:42 41.35252 35.22840 40145 ft 455 kts 276°
2026-05-08 21:43 41.35752 35.14458 40149 ft 455 kts 276°
2026-05-08 21:43 41.36247 35.06062 40144 ft 455 kts 276°
2026-05-08 21:44 41.36735 34.97681 40146 ft 455 kts 276°
2026-05-08 21:44 41.37217 34.89301 40149 ft 454 kts 276°
2026-05-08 21:45 41.37693 34.80906 40151 ft 454 kts 276°
2026-05-08 21:45 41.38163 34.72517 40157 ft 454 kts 276°
2026-05-08 21:46 41.38627 34.64123 40154 ft 455 kts 276°
2026-05-08 21:46 41.39086 34.55719 40160 ft 455 kts 276°
2026-05-08 21:47 41.39538 34.47319 40167 ft 454 kts 276°
2026-05-08 21:47 41.39980 34.38974 40171 ft 454 kts 276°
2026-05-08 21:48 41.41101 34.30743 40187 ft 452 kts 288°
2026-05-08 21:48 41.43047 34.22770 40192 ft 453 kts 289°
2026-05-08 21:49 41.45112 34.14835 40181 ft 453 kts 290°
2026-05-08 21:49 41.47192 34.06886 40184 ft 453 kts 289°
2026-05-08 21:50 41.49242 33.98950 40184 ft 454 kts 289°
2026-05-08 21:50 41.51288 33.90968 40205 ft 454 kts 289°
2026-05-08 21:51 41.53327 33.82985 40193 ft 454 kts 289°
2026-05-08 21:51 41.55361 33.75000 40198 ft 454 kts 289°
2026-05-08 21:52 41.57390 33.67009 40196 ft 455 kts 289°
2026-05-08 21:52 41.59416 33.59002 40192 ft 455 kts 289°
2026-05-08 21:53 41.61450 33.50980 40205 ft 455 kts 289°
2026-05-08 21:53 41.63467 33.42957 40194 ft 455 kts 288°
2026-05-08 21:54 41.65476 33.34916 40188 ft 456 kts 288°
2026-05-08 21:54 41.67484 33.26861 40191 ft 456 kts 288°
2026-05-08 21:55 41.69487 33.18806 40193 ft 457 kts 288°
2026-05-08 21:56 41.72485 33.06701 40173 ft 457 kts 288°
2026-05-08 21:56 41.74467 32.98683 40160 ft 457 kts 288°
2026-05-08 21:57 41.76459 32.90582 40160 ft 457 kts 288°
2026-05-08 21:57 41.78441 32.82487 40166 ft 457 kts 288°
2026-05-08 21:58 41.80420 32.74382 40143 ft 458 kts 288°
2026-05-08 21:58 41.82397 32.66265 40156 ft 458 kts 288°
2026-05-08 21:59 41.84363 32.58136 40140 ft 458 kts 288°
2026-05-08 21:59 41.86325 32.49997 40100 ft 458 kts 287°
2026-05-08 22:00 41.88281 32.41859 40101 ft 459 kts 287°
2026-05-08 22:00 41.90228 32.33693 40117 ft 459 kts 287°
2026-05-08 22:01 41.92187 32.25536 40109 ft 459 kts 287°
2026-05-08 22:01 41.94148 32.17367 40100 ft 459 kts 287°
2026-05-08 22:02 41.96084 32.09185 40093 ft 459 kts 287°
2026-05-08 22:02 41.98012 32.00995 40096 ft 459 kts 287°
2026-05-08 22:03 41.99926 31.92850 40108 ft 459 kts 287°
2026-05-08 22:03 42.01853 31.84647 40097 ft 460 kts 287°
2026-05-08 22:04 42.03774 31.76446 40097 ft 460 kts 287°
2026-05-08 22:04 42.05676 31.68285 40097 ft 460 kts 287°
2026-05-08 22:05 42.07584 31.60068 40096 ft 460 kts 287°
2026-05-08 22:05 42.09494 31.51822 40103 ft 461 kts 287°
2026-05-08 22:06 42.11397 31.43573 40100 ft 462 kts 287°
2026-05-08 22:06 42.13299 31.35318 40102 ft 462 kts 287°
2026-05-08 22:07 42.15191 31.27052 40103 ft 462 kts 286°
2026-05-08 22:07 42.17074 31.18780 40103 ft 462 kts 286°
2026-05-08 22:08 42.18959 31.10482 40100 ft 463 kts 286°
2026-05-08 22:08 42.20838 31.02178 40105 ft 463 kts 286°
2026-05-08 22:09 42.22710 30.93880 40106 ft 463 kts 286°
2026-05-08 22:09 42.24580 30.85557 40102 ft 463 kts 286°
2026-05-08 22:10 42.26443 30.77233 40104 ft 463 kts 286°
2026-05-08 22:10 42.28301 30.68898 40101 ft 463 kts 286°
2026-05-08 22:11 42.30152 30.60567 40105 ft 464 kts 285°
2026-05-08 22:11 42.31999 30.52219 40106 ft 464 kts 285°
2026-05-08 22:12 42.33843 30.43851 40098 ft 464 kts 285°
2026-05-08 22:12 42.35677 30.35498 40098 ft 464 kts 285°
2026-05-08 22:13 42.37509 30.27117 40102 ft 464 kts 285°
2026-05-08 22:13 42.39337 30.18723 40100 ft 466 kts 285°
2026-05-08 22:14 42.41167 30.10293 40098 ft 467 kts 285°
2026-05-08 22:14 42.42989 30.01860 40101 ft 467 kts 285°
2026-05-08 22:15 42.44807 29.93417 40106 ft 467 kts 285°
2026-05-08 22:15 42.46798 29.85036 40096 ft 469 kts 289°
2026-05-08 22:16 42.49137 29.76847 40096 ft 469 kts 290°
2026-05-08 22:16 42.51557 29.68568 40095 ft 469 kts 290°
2026-05-08 22:17 42.53944 29.60397 40091 ft 470 kts 290°
2026-05-08 22:17 42.56339 29.52149 40095 ft 470 kts 290°
2026-05-08 22:18 42.58724 29.43893 40094 ft 470 kts 290°
2026-05-08 22:18 42.61102 29.35631 40090 ft 470 kts 290°
2026-05-08 22:19 42.63471 29.27373 40089 ft 469 kts 290°
2026-05-08 22:19 42.65831 29.19123 40087 ft 468 kts 290°
2026-05-08 22:20 42.67802 29.12212 40087 ft 469 kts 290°
2026-05-08 22:20 42.70150 29.03952 40090 ft 469 kts 290°
2026-05-08 22:21 42.72478 28.95735 40089 ft 469 kts 289°
2026-05-08 22:21 42.74814 28.87465 40084 ft 469 kts 289°
2026-05-08 22:22 42.77161 28.79129 40085 ft 469 kts 289°
2026-05-08 22:22 42.79471 28.70895 40085 ft 469 kts 289°
2026-05-08 22:23 42.81809 28.62534 40080 ft 470 kts 289°
2026-05-08 22:23 42.84114 28.54264 40077 ft 470 kts 289°
2026-05-08 22:24 42.86424 28.45949 40075 ft 470 kts 289°
2026-05-08 22:24 42.88736 28.37599 40075 ft 471 kts 289°
2026-05-08 22:25 42.91039 28.29251 40075 ft 471 kts 289°
2026-05-08 22:25 42.93341 28.20879 40072 ft 471 kts 289°
2026-05-08 22:26 42.95636 28.12506 40076 ft 471 kts 289°
2026-05-08 22:26 42.97929 28.04112 40073 ft 472 kts 289°
2026-05-08 22:27 43.00213 27.95718 40071 ft 472 kts 289°
2026-05-08 22:27 43.02495 27.87308 40071 ft 472 kts 289°
2026-05-08 22:28 43.04771 27.78886 40074 ft 472 kts 289°
2026-05-08 22:28 43.07043 27.70454 40071 ft 472 kts 289°
2026-05-08 22:29 43.09298 27.62055 40072 ft 472 kts 289°
2026-05-08 22:29 43.11556 27.53612 40070 ft 472 kts 289°
2026-05-08 22:30 43.13810 27.45159 40065 ft 473 kts 288°
2026-05-08 22:30 43.16055 27.36706 40063 ft 473 kts 288°
2026-05-08 22:31 43.18299 27.28230 40064 ft 473 kts 288°
2026-05-08 22:31 43.20534 27.19757 40064 ft 473 kts 288°
2026-05-08 22:32 43.22765 27.11272 40057 ft 473 kts 288°
2026-05-08 22:32 43.24986 27.02790 40055 ft 473 kts 288°
2026-05-08 22:33 43.27202 26.94301 40053 ft 473 kts 288°
2026-05-08 22:33 43.29415 26.85791 40056 ft 473 kts 288°
2026-05-08 22:34 43.31616 26.77299 40051 ft 472 kts 288°
2026-05-08 22:34 43.33813 26.68788 40042 ft 472 kts 288°
2026-05-08 22:35 43.36003 26.60278 40040 ft 472 kts 288°
2026-05-08 22:35 43.38180 26.51786 40045 ft 472 kts 288°
2026-05-08 22:36 43.40348 26.43297 40041 ft 472 kts 288°
2026-05-08 22:36 43.42517 26.34774 40033 ft 472 kts 288°
2026-05-08 22:37 43.44679 26.26251 40034 ft 472 kts 288°
2026-05-08 22:37 43.46835 26.17714 40036 ft 472 kts 288°
2026-05-08 22:38 43.48989 26.09161 40064 ft 473 kts 288°
2026-05-08 22:38 43.51142 26.00579 40029 ft 474 kts 288°
2026-05-08 22:39 43.53283 25.92010 40027 ft 473 kts 288°
2026-05-08 22:39 43.55419 25.83431 40026 ft 473 kts 288°
2026-05-08 22:40 43.57544 25.74852 40027 ft 473 kts 288°
2026-05-08 22:40 43.59666 25.66269 40023 ft 473 kts 288°
2026-05-08 22:41 43.61783 25.57673 40026 ft 473 kts 288°
2026-05-08 22:41 43.63894 25.49068 40024 ft 473 kts 288°
2026-05-08 22:42 43.65998 25.40460 40011 ft 473 kts 288°
2026-05-08 22:42 43.68093 25.31853 40009 ft 473 kts 288°
2026-05-08 22:43 43.70184 25.23230 40021 ft 473 kts 288°
2026-05-08 22:43 43.72271 25.14590 40021 ft 474 kts 288°
2026-05-08 22:44 43.74350 25.05953 40006 ft 474 kts 288°
2026-05-08 22:44 43.76426 24.97295 40006 ft 474 kts 288°
2026-05-08 22:45 43.78495 24.88632 40010 ft 474 kts 287°
2026-05-08 22:45 43.80556 24.79968 40023 ft 474 kts 287°
2026-05-08 22:46 43.82614 24.71284 40020 ft 474 kts 287°
2026-05-08 22:46 43.84649 24.62663 40025 ft 474 kts 287°
2026-05-08 22:47 43.86703 24.53928 40011 ft 474 kts 287°
2026-05-08 22:47 43.88737 24.45244 40009 ft 474 kts 287°
2026-05-08 22:48 43.90754 24.36599 40014 ft 474 kts 287°
2026-05-08 22:48 43.92776 24.27901 40024 ft 474 kts 287°
2026-05-08 22:49 43.94788 24.19206 40015 ft 473 kts 287°
2026-05-08 22:49 43.97794 24.06161 40015 ft 473 kts 287°
2026-05-08 22:50 43.99784 23.97475 40018 ft 473 kts 287°
2026-05-08 22:50 44.01771 23.88773 40018 ft 472 kts 287°
2026-05-08 22:51 44.03747 23.80081 40015 ft 471 kts 287°
2026-05-08 22:51 44.05717 23.71383 40012 ft 471 kts 287°
2026-05-08 22:52 44.07680 23.62681 40013 ft 471 kts 287°
2026-05-08 22:52 44.09633 23.53989 40013 ft 471 kts 286°
2026-05-08 22:53 44.11580 23.45287 40012 ft 471 kts 286°
2026-05-08 22:53 44.13522 23.36571 40015 ft 471 kts 286°
2026-05-08 22:54 44.15458 23.27846 40012 ft 471 kts 286°
2026-05-08 22:54 44.17383 23.19140 39787 ft 471 kts 286°
2026-05-08 22:55 44.18344 23.14778 40023 ft 473 kts 286°
2026-05-08 22:55 44.19309 23.10389 40008 ft 473 kts 286°
2026-05-08 22:55 44.21227 23.01643 40007 ft 471 kts 286°
2026-05-08 22:56 44.23132 22.92916 40007 ft 471 kts 286°
2026-05-08 22:56 44.25020 22.84233 40003 ft 470 kts 285°
2026-05-08 22:57 44.26911 22.75499 40004 ft 470 kts 285°
2026-05-08 22:57 44.28795 22.66760 40004 ft 470 kts 285°
2026-05-08 22:58 44.30681 22.58022 40002 ft 470 kts 287°
2026-05-08 22:58 44.33172 22.49563 40004 ft 471 kts 292°
2026-05-08 22:59 44.35891 22.41226 40003 ft 472 kts 293°
2026-05-08 22:59 44.38644 22.32895 40010 ft 472 kts 293°
2026-05-08 23:00 44.41371 22.24601 40026 ft 469 kts 293°
2026-05-08 23:00 44.44089 22.16279 40019 ft 471 kts 293°
2026-05-08 23:01 44.46803 22.07932 40020 ft 471 kts 293°
2026-05-08 23:01 44.49510 21.99577 40022 ft 471 kts 292°
2026-05-08 23:02 44.52210 21.91221 40024 ft 470 kts 292°
2026-05-08 23:02 44.54897 21.82881 40023 ft 469 kts 292°
2026-05-08 23:03 44.57570 21.74556 40031 ft 468 kts 292°
2026-05-08 23:03 44.60237 21.66224 40027 ft 468 kts 292°
2026-05-08 23:04 44.62897 21.57887 40031 ft 468 kts 292°
2026-05-08 23:04 44.65546 21.49559 40028 ft 467 kts 292°
2026-05-08 23:05 44.68171 21.41277 40029 ft 467 kts 292°
2026-05-08 23:05 44.70806 21.32939 40028 ft 467 kts 292°
2026-05-08 23:06 44.73432 21.24602 40029 ft 466 kts 292°
2026-05-08 23:06 44.76052 21.16258 40028 ft 466 kts 292°
2026-05-08 23:07 44.78665 21.07910 40031 ft 466 kts 292°
2026-05-08 23:07 44.80848 21.00912 40031 ft 466 kts 291°
2026-05-08 23:08 44.83448 20.92556 40039 ft 465 kts 291°
2026-05-08 23:08 44.86023 20.84256 40037 ft 465 kts 291°
2026-05-08 23:09 44.88622 20.75845 40039 ft 465 kts 291°
2026-05-08 23:09 44.91198 20.67486 40040 ft 465 kts 291°
2026-05-08 23:10 44.93737 20.59217 40043 ft 465 kts 291°
2026-05-08 23:10 44.96282 20.50902 40063 ft 464 kts 291°
2026-05-08 23:11 44.98841 20.42517 40068 ft 464 kts 291°
2026-05-08 23:11 45.01387 20.34143 40024 ft 464 kts 291°
2026-05-08 23:12 45.03930 20.25754 40024 ft 464 kts 291°
2026-05-08 23:12 45.06463 20.17368 40024 ft 463 kts 291°
2026-05-08 23:13 45.08995 20.08962 40037 ft 466 kts 291°
2026-05-08 23:13 45.11520 20.00548 40029 ft 464 kts 291°
2026-05-08 23:14 45.14034 19.92141 40026 ft 463 kts 291°
2026-05-08 23:14 45.16534 19.83756 40042 ft 462 kts 290°
2026-05-08 23:15 45.19028 19.75360 40042 ft 462 kts 290°
2026-05-08 23:15 45.21517 19.66954 40024 ft 462 kts 290°
2026-05-08 23:16 45.23990 19.58580 40042 ft 457 kts 289°
2026-05-08 23:16 45.26410 19.50363 40038 ft 448 kts 289°
2026-05-08 23:17 45.28794 19.42226 40036 ft 446 kts 289°
2026-05-08 23:17 45.31175 19.34071 40046 ft 447 kts 289°
2026-05-08 23:18 45.33541 19.25943 40040 ft 448 kts 289°
2026-05-08 23:18 45.35934 19.17700 40041 ft 448 kts 289°
2026-05-08 23:19 45.38288 19.09568 40044 ft 448 kts 289°
2026-05-08 23:19 45.40655 19.01359 40046 ft 448 kts 289°
2026-05-08 23:20 45.43014 18.93152 40052 ft 448 kts 289°
2026-05-08 23:20 45.45370 18.84928 40047 ft 449 kts 289°
2026-05-08 23:21 45.47737 18.76639 40047 ft 449 kts 289°
2026-05-08 23:21 45.50069 18.68446 40042 ft 449 kts 289°
2026-05-08 23:22 45.52409 18.60197 40060 ft 449 kts 289°
2026-05-08 23:22 45.54744 18.51934 40050 ft 449 kts 289°
2026-05-08 23:23 45.57076 18.43657 40050 ft 450 kts 288°
2026-05-08 23:23 45.59400 18.35378 40051 ft 450 kts 288°
2026-05-08 23:24 45.61719 18.27090 40050 ft 450 kts 288°
2026-05-08 23:24 45.64035 18.18784 40052 ft 450 kts 288°
2026-05-08 23:25 45.66350 18.10453 40053 ft 451 kts 288°
2026-05-08 23:25 45.68656 18.02127 40054 ft 451 kts 288°
2026-05-08 23:26 45.70955 17.93798 40057 ft 450 kts 288°
2026-05-08 23:26 45.73253 17.85444 40057 ft 451 kts 288°
2026-05-08 23:27 45.75540 17.77097 40056 ft 451 kts 288°
2026-05-08 23:27 45.77824 17.68735 40059 ft 451 kts 288°
2026-05-08 23:28 45.80102 17.60365 40061 ft 451 kts 288°
2026-05-08 23:28 45.82374 17.51987 40070 ft 451 kts 288°
2026-05-08 23:29 45.84639 17.43608 40063 ft 451 kts 288°
2026-05-08 23:29 45.86901 17.35207 40058 ft 451 kts 288°
2026-05-08 23:30 45.89154 17.26815 40064 ft 451 kts 288°
2026-05-08 23:30 45.91387 17.18463 40061 ft 451 kts 288°
2026-05-08 23:31 45.93633 17.10034 40060 ft 452 kts 288°
2026-05-08 23:31 45.95874 17.01594 40060 ft 452 kts 288°
2026-05-08 23:32 45.98108 16.93148 40065 ft 452 kts 288°
2026-05-08 23:32 46.00336 16.84698 40077 ft 452 kts 288°
2026-05-08 23:33 46.02562 16.76223 40065 ft 453 kts 287°
2026-05-08 23:33 46.04786 16.67723 40068 ft 454 kts 287°
2026-05-08 23:34 46.07001 16.59231 40069 ft 454 kts 287°
2026-05-08 23:34 46.09213 16.50719 40075 ft 454 kts 287°
2026-05-08 23:35 46.11418 16.42201 40077 ft 454 kts 287°
2026-05-08 23:35 46.13621 16.33657 40076 ft 454 kts 287°
2026-05-08 23:36 46.15816 16.25118 40078 ft 454 kts 287°
2026-05-08 23:36 46.18004 16.16570 40078 ft 454 kts 287°
2026-05-08 23:37 46.20187 16.08008 40075 ft 457 kts 289°
2026-05-08 23:37 46.22391 15.99334 40076 ft 462 kts 289°
2026-05-08 23:38 46.24597 15.90624 40077 ft 461 kts 289°
2026-05-08 23:38 46.26971 15.82087 40081 ft 462 kts 296°
2026-05-08 23:39 46.30137 15.73914 40088 ft 463 kts 298°
2026-05-08 23:39 46.33375 15.65950 40082 ft 465 kts 298°
2026-05-08 23:40 46.36673 15.57878 40080 ft 465 kts 298°
2026-05-08 23:40 46.39949 15.49802 40083 ft 465 kts 298°
2026-05-08 23:41 46.43212 15.41713 40098 ft 465 kts 298°
2026-05-08 23:41 46.46462 15.33626 40095 ft 464 kts 298°
2026-05-08 23:42 46.49704 15.25537 40091 ft 464 kts 298°
2026-05-08 23:42 46.52940 15.17439 40086 ft 464 kts 298°
2026-05-08 23:43 46.56173 15.09326 40099 ft 464 kts 298°
2026-05-08 23:43 46.59397 15.01210 40093 ft 463 kts 298°
2026-05-08 23:44 46.62610 14.93098 40090 ft 464 kts 298°
2026-05-08 23:44 46.65829 14.84946 40093 ft 465 kts 298°
2026-05-08 23:45 46.69045 14.76777 40095 ft 465 kts 297°
2026-05-08 23:45 46.72227 14.68673 40096 ft 464 kts 297°
2026-05-08 23:46 46.75423 14.60507 40100 ft 463 kts 297°
2026-05-08 23:46 46.78608 14.52345 40097 ft 463 kts 297°
2026-05-08 23:47 46.81786 14.44176 40101 ft 463 kts 297°
2026-05-08 23:47 46.84942 14.36038 40102 ft 462 kts 297°
2026-05-08 23:48 46.88102 14.27868 40103 ft 462 kts 297°
2026-05-08 23:48 46.91255 14.19689 40101 ft 462 kts 297°
2026-05-08 23:49 46.94404 14.11497 40096 ft 463 kts 297°
2026-05-08 23:49 46.97549 14.03289 40098 ft 464 kts 297°
2026-05-08 23:50 47.00705 13.95026 40100 ft 465 kts 297°
2026-05-08 23:50 47.03862 13.86739 40121 ft 465 kts 297°
2026-05-08 23:51 47.07006 13.78458 40100 ft 465 kts 297°
2026-05-08 23:51 47.10149 13.70157 40100 ft 465 kts 297°
2026-05-08 23:52 47.13278 13.61865 40104 ft 464 kts 297°
2026-05-08 23:52 47.16398 13.53573 40105 ft 463 kts 297°
2026-05-08 23:53 47.19504 13.45292 40104 ft 463 kts 297°
2026-05-08 23:53 47.22602 13.37003 40099 ft 463 kts 297°
2026-05-08 23:54 47.25705 13.28677 40105 ft 464 kts 297°
2026-05-08 23:55 47.30344 13.16179 40104 ft 464 kts 297°
2026-05-08 23:55 47.32909 13.09248 40102 ft 464 kts 296°
2026-05-08 23:56 47.35987 13.00903 40103 ft 463 kts 296°
2026-05-08 23:56 47.39059 12.92547 40102 ft 462 kts 296°
2026-05-08 23:57 47.42110 12.84226 40102 ft 460 kts 296°
2026-05-08 23:57 47.45142 12.75928 40102 ft 459 kts 296°
2026-05-08 23:58 47.48174 12.67604 40104 ft 460 kts 296°
2026-05-08 23:58 47.51195 12.59285 40101 ft 460 kts 296°
2026-05-08 23:59 47.54213 12.50945 40112 ft 460 kts 296°
2026-05-08 23:59 47.57239 12.42560 40100 ft 462 kts 296°
2026-05-09 00:00 47.60265 12.34147 40102 ft 463 kts 296°
2026-05-09 00:00 47.63285 12.25725 40101 ft 463 kts 296°
2026-05-09 00:01 47.66417 12.17383 40099 ft 464 kts 299°
2026-05-09 00:01 47.69880 12.09309 40101 ft 464 kts 300°
2026-05-09 00:02 47.73307 12.01368 40091 ft 464 kts 300°
2026-05-09 00:02 47.76730 11.93248 40091 ft 464 kts 300°
2026-05-09 00:03 47.80120 11.85096 40098 ft 464 kts 299°
2026-05-09 00:03 47.83481 11.76969 40106 ft 464 kts 299°
2026-05-09 00:04 47.86866 11.68765 40107 ft 466 kts 299°
2026-05-09 00:04 47.90258 11.60528 40096 ft 467 kts 299°
2026-05-09 00:05 47.93645 11.52279 40103 ft 466 kts 299°
2026-05-09 00:05 47.97028 11.44014 40104 ft 466 kts 299°
2026-05-09 00:06 48.00400 11.35752 40104 ft 466 kts 299°
2026-05-09 00:06 48.03765 11.27477 40104 ft 466 kts 299°
2026-05-09 00:07 48.07125 11.19192 40101 ft 466 kts 299°
2026-05-09 00:07 48.10470 11.10918 40103 ft 466 kts 299°
2026-05-09 00:08 48.13825 11.02594 40105 ft 467 kts 299°
2026-05-09 00:08 48.17174 10.94258 40096 ft 468 kts 299°
2026-05-09 00:09 48.20524 10.85896 40093 ft 468 kts 299°
2026-05-09 00:09 48.23871 10.77513 40103 ft 468 kts 299°
2026-05-09 00:10 48.27183 10.69192 40094 ft 467 kts 299°
2026-05-09 00:10 48.30511 10.60806 40106 ft 467 kts 299°
2026-05-09 00:11 48.33831 10.52412 40109 ft 467 kts 299°
2026-05-09 00:11 48.37139 10.44023 40119 ft 467 kts 299°
2026-05-09 00:12 48.40451 10.35597 40111 ft 467 kts 298°
2026-05-09 00:12 48.43750 10.27179 40109 ft 467 kts 298°
2026-05-09 00:13 48.47042 10.18752 40119 ft 467 kts 298°
2026-05-09 00:13 48.50323 10.10325 40113 ft 467 kts 298°
2026-05-09 00:14 48.53605 10.01869 40117 ft 467 kts 298°
2026-05-09 00:14 48.56878 9.93409 40119 ft 467 kts 298°
2026-05-09 00:15 48.60135 9.84965 40102 ft 467 kts 298°
2026-05-09 00:15 48.63397 9.76479 40099 ft 467 kts 298°
2026-05-09 00:16 48.66686 9.67992 40095 ft 468 kts 301°
2026-05-09 00:16 48.70540 9.60053 40087 ft 470 kts 306°
2026-05-09 00:17 48.74550 9.52228 40085 ft 470 kts 306°
2026-05-09 00:17 48.78557 9.44458 40086 ft 471 kts 306°
2026-05-09 00:18 48.82603 9.36574 40098 ft 470 kts 306°
2026-05-09 00:18 48.86588 9.28768 40095 ft 470 kts 306°
2026-05-09 00:19 48.90596 9.20890 40095 ft 470 kts 306°
2026-05-09 00:19 48.94577 9.13041 40104 ft 470 kts 306°
2026-05-09 00:20 48.98568 9.05150 40089 ft 471 kts 306°
2026-05-09 00:20 49.02529 8.97295 40085 ft 471 kts 306°
2026-05-09 00:21 49.06525 8.89347 40085 ft 471 kts 306°
2026-05-09 00:21 49.10506 8.81407 40103 ft 471 kts 306°
2026-05-09 00:22 49.14483 8.73451 40105 ft 471 kts 306°
2026-05-09 00:22 49.18448 8.65496 40106 ft 471 kts 306°
2026-05-09 00:23 49.22407 8.57526 40116 ft 471 kts 306°
2026-05-09 00:23 49.26370 8.49527 40117 ft 472 kts 306°
2026-05-09 00:24 49.30324 8.41522 40102 ft 472 kts 306°
2026-05-09 00:24 49.34272 8.33506 40107 ft 472 kts 306°
2026-05-09 00:25 49.38225 8.25454 40105 ft 472 kts 306°
2026-05-09 00:25 49.42162 8.17409 40113 ft 472 kts 306°
2026-05-09 00:26 49.46097 8.09346 40113 ft 472 kts 305°
2026-05-09 00:26 49.50028 8.01266 40116 ft 472 kts 305°
2026-05-09 00:27 49.53936 7.93209 40115 ft 472 kts 305°
2026-05-09 00:27 49.57859 7.85095 40115 ft 472 kts 305°
2026-05-09 00:28 49.61779 7.76965 40113 ft 472 kts 305°
2026-05-09 00:28 49.65683 7.68841 40119 ft 472 kts 305°
2026-05-09 00:29 49.69585 7.60698 40119 ft 472 kts 305°
2026-05-09 00:29 49.73481 7.52542 40128 ft 472 kts 305°
2026-05-09 00:30 49.77375 7.44365 40126 ft 473 kts 305°
2026-05-09 00:30 49.81272 7.36155 40123 ft 473 kts 305°
2026-05-09 00:31 49.85151 7.27959 40125 ft 473 kts 305°
2026-05-09 00:31 49.89033 7.19731 40123 ft 473 kts 305°
2026-05-09 00:32 49.92912 7.11485 40131 ft 473 kts 305°
2026-05-09 00:32 49.96780 7.03234 40126 ft 472 kts 305°
2026-05-09 00:33 50.00265 6.94688 40111 ft 472 kts 294°
2026-05-09 00:33 50.02119 6.84965 40112 ft 471 kts 277°
2026-05-09 00:34 50.02164 6.74784 40108 ft 473 kts 264°
2026-05-09 00:34 50.00543 6.64872 40110 ft 475 kts 251°
2026-05-09 00:35 49.98162 6.55302 40099 ft 474 kts 249°
2026-05-09 00:35 49.95571 6.45902 40103 ft 474 kts 247°
2026-05-09 00:36 49.92855 6.36568 40116 ft 474 kts 247°
2026-05-09 00:36 49.90179 6.27249 40112 ft 474 kts 248°
2026-05-09 00:37 49.87522 6.17889 40112 ft 474 kts 248°
2026-05-09 00:37 49.84274 6.08978 40117 ft 476 kts 238°
2026-05-09 00:38 49.80502 6.00601 40108 ft 477 kts 236°
2026-05-09 00:38 49.76640 5.92270 40116 ft 476 kts 236°
2026-05-09 00:39 49.73400 5.83406 40123 ft 472 kts 250°
2026-05-09 00:39 49.71087 5.73942 40121 ft 471 kts 251°
2026-05-09 00:40 49.68892 5.64396 40121 ft 471 kts 252°
2026-05-09 00:40 49.66711 5.54951 39980 ft 471 kts 251°
2026-05-09 00:41 49.64490 5.45463 39543 ft 470 kts 251°
2026-05-09 00:41 49.63372 5.40718 39308 ft 470 kts 251°
2026-05-09 00:41 49.62253 5.35982 39068 ft 470 kts 251°
2026-05-09 00:41 49.61178 5.31222 38848 ft 469 kts 253°
2026-05-09 00:42 49.60174 5.26456 38472 ft 467 kts 255°
2026-05-09 00:42 49.59465 5.21599 37852 ft 461 kts 263°
2026-05-09 00:42 49.59203 5.16703 37183 ft 458 kts 271°
2026-05-09 00:42 49.59203 5.13447 36729 ft 457 kts 272°
2026-05-09 00:43 49.59247 5.08561 36057 ft 457 kts 273°
2026-05-09 00:43 49.59305 5.02051 35104 ft 458 kts 274°
2026-05-09 00:43 49.59345 4.97129 34295 ft 461 kts 274°
2026-05-09 00:43 49.59370 4.93796 33663 ft 463 kts 274°
2026-05-09 00:44 49.59408 4.88821 32805 ft 465 kts 273°
2026-05-09 00:44 49.59441 4.83845 31954 ft 466 kts 273°
2026-05-09 00:44 49.59480 4.77296 31421 ft 455 kts 273°
2026-05-09 00:44 49.59507 4.72445 30895 ft 450 kts 273°
2026-05-09 00:45 49.59524 4.69223 30519 ft 448 kts 273°
2026-05-09 00:45 49.59547 4.64410 29892 ft 446 kts 273°
2026-05-09 00:45 49.59567 4.59651 29291 ft 441 kts 273°
2026-05-09 00:45 49.59586 4.54941 28736 ft 437 kts 273°
2026-05-09 00:46 49.59602 4.50290 28185 ft 432 kts 272°
2026-05-09 00:46 49.59618 4.45689 27622 ft 428 kts 272°
2026-05-09 00:46 49.59631 4.41118 27079 ft 424 kts 272°
2026-05-09 00:46 49.59642 4.36581 26528 ft 421 kts 272°
2026-05-09 00:47 49.59651 4.32086 25982 ft 418 kts 272°
2026-05-09 00:47 49.59659 4.27621 25439 ft 416 kts 271°
2026-05-09 00:47 49.59664 4.23171 24885 ft 414 kts 271°
2026-05-09 00:47 49.59668 4.18762 24338 ft 412 kts 271°
2026-05-09 00:48 49.59670 4.14393 23787 ft 411 kts 271°
2026-05-09 00:48 49.59610 4.09980 23154 ft 409 kts 266°
2026-05-09 00:48 49.59003 4.05731 22602 ft 407 kts 250°
2026-05-09 00:48 49.57716 4.01954 22052 ft 405 kts 238°
2026-05-09 00:49 49.56181 3.98314 21477 ft 402 kts 237°
2026-05-09 00:49 49.54651 3.94730 20903 ft 400 kts 237°
2026-05-09 00:49 49.53134 3.91160 20306 ft 398 kts 237°
2026-05-09 00:49 49.51600 3.87540 19752 ft 396 kts 237°
2026-05-09 00:50 49.50106 3.84014 19167 ft 393 kts 236°
2026-05-09 00:50 49.48640 3.80550 18595 ft 390 kts 236°
2026-05-09 00:50 49.47381 3.76882 17997 ft 388 kts 249°
2026-05-09 00:50 49.46615 3.72924 17413 ft 384 kts 255°
2026-05-09 00:51 49.45965 3.68983 16889 ft 379 kts 255°
2026-05-09 00:51 49.45317 3.65078 16306 ft 375 kts 255°
2026-05-09 00:51 49.44674 3.61223 15886 ft 368 kts 255°
2026-05-09 00:51 49.44038 3.57433 15783 ft 368 kts 255°
2026-05-09 00:52 49.43390 3.53619 15628 ft 367 kts 255°
2026-05-09 00:52 49.42745 3.49835 15462 ft 366 kts 255°
2026-05-09 00:52 49.42086 3.46054 15272 ft 365 kts 253°
2026-05-09 00:52 49.41228 3.42402 15120 ft 364 kts 248°
2026-05-09 00:53 49.40268 3.38813 14960 ft 363 kts 247°
2026-05-09 00:53 49.39305 3.35234 14780 ft 362 kts 247°
2026-05-09 00:53 49.38343 3.31659 14611 ft 361 kts 247°
2026-05-09 00:53 49.37389 3.28109 14442 ft 360 kts 247°
2026-05-09 00:54 49.36434 3.24557 14262 ft 359 kts 247°
2026-05-09 00:54 49.35484 3.21029 14106 ft 359 kts 247°
2026-05-09 00:54 49.34528 3.17481 13931 ft 358 kts 247°
2026-05-09 00:54 49.33579 3.13966 13758 ft 357 kts 247°
2026-05-09 00:55 49.32631 3.10457 13592 ft 356 kts 247°
2026-05-09 00:55 49.31684 3.06959 13433 ft 356 kts 247°
2026-05-09 00:55 49.30736 3.03463 13246 ft 355 kts 247°
2026-05-09 00:55 49.29789 2.99973 13081 ft 354 kts 247°
2026-05-09 00:56 49.28842 2.96492 12904 ft 353 kts 247°
2026-05-09 00:56 49.27901 2.93036 12756 ft 352 kts 247°
2026-05-09 00:56 49.26956 2.89572 12588 ft 351 kts 247°
2026-05-09 00:56 49.26020 2.86142 12422 ft 348 kts 247°
2026-05-09 00:57 49.25087 2.82731 12262 ft 346 kts 247°
2026-05-09 00:57 49.24166 2.79369 12096 ft 345 kts 247°
2026-05-09 00:57 49.23240 2.75993 11943 ft 344 kts 247°
2026-05-09 00:57 49.22316 2.72626 11784 ft 343 kts 247°
2026-05-09 00:58 49.21393 2.69270 11643 ft 339 kts 247°
2026-05-09 00:58 49.20500 2.66029 11498 ft 324 kts 247°
2026-05-09 00:58 49.19646 2.62932 11357 ft 309 kts 247°
2026-05-09 00:58 49.18830 2.59977 11210 ft 295 kts 247°
2026-05-09 00:59 49.18183 2.57077 11058 ft 282 kts 258°
2026-05-09 00:59 49.18001 2.54121 10804 ft 280 kts 267°
2026-05-09 00:59 49.17950 2.51136 10545 ft 281 kts 268°
2026-05-09 00:59 49.17897 2.48162 10288 ft 280 kts 267°
2026-05-09 01:00 49.17840 2.45221 10020 ft 279 kts 267°
2026-05-09 01:00 49.17778 2.42265 9769 ft 277 kts 267°
2026-05-09 01:00 49.17715 2.39327 9527 ft 277 kts 267°
2026-05-09 01:00 49.17649 2.36385 9264 ft 277 kts 267°
2026-05-09 01:01 49.17507 2.33454 9003 ft 277 kts 263°
2026-05-09 01:01 49.17296 2.30566 8756 ft 277 kts 263°
2026-05-09 01:01 49.17083 2.27606 8504 ft 276 kts 263°
2026-05-09 01:01 49.16881 2.24688 8249 ft 276 kts 263°
2026-05-09 01:02 49.16687 2.21812 8006 ft 276 kts 263°
2026-05-09 01:02 49.16493 2.18900 7764 ft 276 kts 263°
2026-05-09 01:02 49.16122 2.16025 7506 ft 276 kts 249°
2026-05-09 01:02 49.15098 2.13602 7258 ft 274 kts 223°
2026-05-09 01:03 49.13479 2.12126 7083 ft 272 kts 197°
2026-05-09 01:03 49.11623 2.11812 6692 ft 272 kts 172°
2026-05-09 01:03 49.09878 2.12769 6263 ft 258 kts 146°
2026-05-09 01:03 49.08410 2.14173 5966 ft 241 kts 153°
2026-05-09 01:04 49.06897 2.14995 5716 ft 225 kts 163°
2026-05-09 01:04 49.05423 2.15596 5442 ft 216 kts 165°
2026-05-09 01:04 49.03999 2.16161 5305 ft 207 kts 165°
2026-05-09 01:04 49.02639 2.16700 5185 ft 196 kts 165°
2026-05-09 01:05 49.01434 2.17514 4993 ft 187 kts 138°
2026-05-09 01:05 49.00844 2.19164 4823 ft 177 kts 102°
2026-05-09 01:05 49.00893 2.22827 4311 ft 172 kts 87°
2026-05-09 01:06 49.00972 2.24635 4037 ft 172 kts 86°
2026-05-09 01:06 49.01070 2.26438 3783 ft 170 kts 86°
2026-05-09 01:06 49.01168 2.28228 3553 ft 169 kts 86°
2026-05-09 01:06 49.01261 2.30003 3321 ft 168 kts 86°
2026-05-09 01:07 49.01356 2.31771 3093 ft 167 kts 86°
2026-05-09 01:07 49.01451 2.33536 2873 ft 166 kts 86°
2026-05-09 01:07 49.01544 2.35260 2655 ft 159 kts 86°
2026-05-09 01:07 49.01632 2.36881 2444 ft 149 kts 86°
2026-05-09 01:08 49.01713 2.38388 2249 ft 137 kts 86°
2026-05-09 01:08 49.01788 2.39779 2079 ft 129 kts 86°
2026-05-09 01:08 49.01859 2.41124 1908 ft 127 kts 86°
2026-05-09 01:08 49.01925 2.42472 1766 ft 129 kts 87°
2026-05-09 01:09 49.01999 2.43842 1561 ft 130 kts 85°
2026-05-09 01:09 49.02075 2.45207 1359 ft 129 kts 85°
2026-05-09 01:09 49.02150 2.46569 1129 ft 129 kts 85°
2026-05-09 01:09 49.02218 2.47928 896 ft 129 kts 84°
2026-05-09 01:10 49.02299 2.49308 755 ft 131 kts 83°
2026-05-09 01:10 49.02374 2.50696 621 ft 132 kts 83°
2026-05-09 01:10 49.02446 2.52085 452 ft 131 kts 82°
2026-05-09 01:10 49.02523 2.53450 371 ft 125 kts 82°
2026-05-09 01:11 49.02585 2.54578 363 ft 75 kts 85°
2026-05-09 01:11 49.02609 2.55023 367 ft 27 kts 88°
2026-05-09 01:11 49.02569 2.55293 367 ft 25 kts 112°
2026-05-09 01:11 49.02540 2.55390 370 ft 0 kts 115°
2026-05-09 01:12 49.02534 2.55408 367 ft 5 kts 115°
2026-05-09 01:12 49.02508 2.55490 370 ft 11 kts 115°
2026-05-09 01:12 49.02474 2.55615 368 ft 14 kts 103°
2026-05-09 01:12 49.02478 2.55781 367 ft 17 kts 85°
2026-05-09 01:13 49.02461 2.55919 369 ft 14 kts 133°
2026-05-09 01:13 49.02359 2.55961 362 ft 17 kts 176°
2026-05-09 01:13 49.02226 2.55977 363 ft 21 kts 175°
2026-05-09 01:13 49.02102 2.56073 369 ft 21 kts 112°
2026-05-09 01:14 49.02069 2.56295 369 ft 23 kts 125°
2026-05-09 01:14 49.02027 2.56521 365 ft 24 kts 84°
2026-05-09 01:14 49.02042 2.56781 366 ft 25 kts 85°
2026-05-09 01:14 49.02052 2.57006 364 ft 12 kts 92°
2026-05-09 01:15 49.02008 2.57088 363 ft 10 kts 151°
2026-05-09 01:15 49.01975 2.57157 369 ft 7 kts 100°
2026-05-09 01:15 49.01975 2.57218 367 ft 5 kts 86°
2026-05-09 01:15 49.01978 2.57273 366 ft 5 kts 86°
2026-05-09 01:16 49.01980 2.57329 363 ft 5 kts 85°
2026-05-09 01:16 49.01983 2.57383 361 ft 5 kts 85°
2026-05-09 01:16 49.01986 2.57438 362 ft 5 kts 85°
2026-05-09 01:17 49.01993 2.57577 366 ft 8 kts 85°
2026-05-09 01:17 49.01998 2.57672 362 ft 10 kts 85°
2026-05-09 01:17 49.01988 2.57798 367 ft 15 kts 108°
2026-05-09 01:17 49.01917 2.57939 368 ft 19 kts 147°
2026-05-09 01:18 49.01772 2.57994 364 ft 24 kts 175°
2026-05-09 01:18 49.01606 2.58014 366 ft 23 kts 175°
2026-05-09 01:18 49.01454 2.58032 367 ft 21 kts 175°
2026-05-09 01:18 49.01310 2.58049 368 ft 20 kts 175°
2026-05-09 01:19 49.01173 2.58067 366 ft 19 kts 176°
2026-05-09 01:19 49.01043 2.58082 367 ft 18 kts 176°
2026-05-09 01:19 49.00933 2.58137 368 ft 16 kts 134°
2026-05-09 01:19 49.00916 2.58285 365 ft 14 kts 88°
2026-05-09 01:20 49.00924 2.58420 367 ft 13 kts 84°
2026-05-09 01:20 49.00926 2.58548 366 ft 12 kts 103°
2026-05-09 01:20 49.00879 2.58644 364 ft 11 kts 130°
2026-05-09 01:20 49.00853 2.58744 367 ft 10 kts 94°
2026-05-09 01:21 49.00857 2.58843 366 ft 9 kts 86°
2026-05-09 01:21 49.00863 2.58948 363 ft 11 kts 85°
2026-05-09 01:21 49.00871 2.59083 362 ft 14 kts 85°
2026-05-09 01:21 49.00867 2.59228 363 ft 13 kts 112°
2026-05-09 01:22 49.00809 2.59299 368 ft 10 kts 130°
2026-05-09 01:22 49.00779 2.59378 368 ft 9 kts 126°
2026-05-09 01:22 49.00706 2.59422 365 ft 14 kts 171°
2026-05-09 01:22 49.00589 2.59437 368 ft 19 kts 177°
2026-05-09 01:23 49.00449 2.59454 367 ft 12 kts 178°
2026-05-09 01:23 49.00439 2.59450 367 ft 3 kts 196°
2026-05-09 01:23 49.00394 2.59369 368 ft 15 kts 231°
2026-05-09 01:23 49.00324 2.59302 365 ft 10 kts 236°
2026-05-09 01:24 49.00312 2.59215 361 ft 2 kts 262°
2026-05-09 01:24 49.00311 2.59215 361 ft 0 kts 262°
2026-05-09 01:24 49.00311 2.59206 361 ft 1 kts 264°